GFSFLT1_925_thetae_000.txt.gz
Theta_e
311 308 306 306 304 303 304 303 303 303 303 303 303 304 304 304 304 304 304 303 303 302 303 304 303 302 301 301 302 303 306 311
311 308 307 305 304 303 303 303 303 302 303 303 303 303 303 304 303 302 303 302 302 302 302 302 302 302 302 301 300 300 301 304
310 309 307 306 305 304 304 303 303 303 303 303 303 303 302 302 302 303 303 302 302 301 301 301 301 301 301 301 301 300 300 301
311 309 308 307 306 305 304 304 303 302 302 302 302 301 301 302 302 302 303 303 303 303 302 301 301 301 301 301 300 300 300 299
310 309 308 307 307 306 305 304 303 302 302 302 302 302 302 302 301 302 302 302 302 302 302 302 302 301 301 300 299 300 300 300
311 309 308 307 307 306 305 303 303 302 302 302 302 302 301 301 301 301 301 301 301 301 301 302 302 302 301 301 301 300 299 299
311 308 306 307 306 306 305 304 303 302 302 301 301 301 301 301 300 300 299 299 299 299 299 299 299 299 299 300 300 300 300 300
312 311 308 306 306 305 304 303 303 302 301 301 301 301 300 299 298 298 297 297 296 296 295 295 295 295 295 296 296 297 298 298
312 310 308 307 306 305 304 302 302 302 300 300 299 298 297 297 295 295 294 294 293 293 293 293 293 293 293 293 293 294 294 296
312 310 307 306 306 305 304 303 301 300 299 298 297 296 295 294 294 293 293 292 292 291 291 291 291 292 292 293 293 294 295 295
313 312 310 308 307 305 303 302 300 299 297 296 296 295 293 293 293 292 292 292 291 291 290 291 291 291 291 291 292 292 293 294
313 312 310 309 305 302 300 299 299 297 296 295 294 294 293 292 292 292 291 291 290 290 290 290 290 290 290 290 291 291 292 292
313 312 310 307 302 300 299 298 297 296 295 294 293 293 292 292 292 291 290 290 289 289 289 289 288 288 288 289 289 290 290 291
312 313 309 304 301 299 298 297 296 295 294 293 293 292 292 292 291 290 290 289 289 288 288 287 287 287 287 288 288 289 289 290
312 312 308 302 299 298 297 296 295 295 294 293 293 292 292 291 290 290 289 288 287 287 286 286 286 286 287 287 287 288 288 288
312 309 306 301 298 297 296 296 295 294 294 293 293 292 291 290 289 289 288 287 286 286 286 285 286 286 286 286 286 286 286 286
309 306 302 299 297 296 297 296 297 295 294 293 292 291 290 289 288 288 286 286 285 285 285 285 286 286 285 284 283 283 283 284
308 303 300 297 296 298 299 299 296 294 293 292 291 290 289 288 287 286 285 285 285 285 285 285 285 285 284 283 283 282 283 284
306 301 297 297 299 299 298 295 294 293 292 291 290 289 288 287 286 285 284 284 284 284 285 285 284 284 283 283 282 282 283 284

GFSFLT1_925_thetae_003.txt.gz
Theta_e
316 315 313 312 311 309 309 308 307 307 307 307 307 307 308 307 307 307 307 306 305 305 305 306 305 304 304 304 303 303 303 304
316 315 313 311 311 309 308 308 307 306 306 306 306 307 307 307 306 306 306 305 304 305 304 304 304 304 304 304 304 303 303 303
316 315 313 312 311 310 308 308 307 306 306 306 306 307 306 306 306 306 306 305 305 304 304 304 303 303 304 304 303 303 303 303
315 314 313 313 312 311 309 308 307 307 306 306 305 305 305 305 305 305 306 306 305 305 305 304 304 304 303 303 303 303 302 302
314 314 314 313 312 311 310 309 308 307 306 305 305 305 305 305 305 304 304 304 305 305 304 303 303 303 303 303 302 302 302 302
315 315 314 313 312 311 311 310 308 307 306 305 304 304 305 304 304 304 304 304 303 303 303 302 302 302 302 302 302 302 302 303
315 314 314 312 312 312 311 310 309 307 306 305 304 304 304 304 303 303 303 301 301 301 300 300 300 300 300 300 300 301 301 301
316 315 314 313 311 311 311 310 309 308 306 305 304 304 304 303 303 301 300 299 298 298 298 297 296 296 296 296 296 297 297 298
316 315 314 313 312 311 311 310 309 307 306 305 304 303 303 302 300 299 297 297 297 296 295 295 294 294 294 294 294 295 295 296
317 316 314 313 312 311 311 311 310 308 306 305 304 302 301 299 298 297 296 296 295 294 294 294 293 293 293 293 294 294 295 295
316 315 314 313 312 312 311 310 309 308 305 303 301 299 298 296 296 295 295 294 294 294 293 293 292 292 292 293 293 293 294 294
315 315 313 313 313 311 309 308 307 305 303 301 298 297 296 295 295 294 294 294 293 292 292 292 292 292 292 292 292 292 293 293
315 314 313 313 312 309 307 305 303 302 300 298 296 296 295 294 294 294 293 293 292 292 291 291 291 291 291 291 291 291 291 291
314 313 314 312 310 307 305 303 302 300 298 297 295 295 295 295 294 293 293 292 292 291 291 290 290 290 290 290 290 290 290 290
313 313 313 311 309 306 303 302 300 298 297 296 296 296 295 294 293 293 292 292 291 290 290 289 289 289 289 289 289 289 289 289
313 312 311 311 307 304 302 300 298 297 297 297 297 295 295 294 293 292 292 291 290 289 288 288 288 288 288 288 288 288 287 287
312 310 310 309 304 302 301 298 298 298 299 298 296 295 294 293 292 291 290 289 288 288 288 288 288 287 287 287 286 286 285 284
310 309 309 307 302 300 299 299 300 300 297 296 295 293 292 292 291 290 289 288 288 287 287 287 287 287 287 286 284 284 284 284
307 308 308 303 300 300 300 300 299 297 297 295 293 292 291 291 290 289 288 287 287 287 286 286 286 286 285 284 284 283 283 283

GFSFLT1_925_thetae_006.txt.gz
Theta_e
318 317 316 315 314 313 312 311 310 310 309 309 309 309 309 309 309 309 308 307 306 306 306 306 306 305 305 305 305 304 304 304
317 317 316 314 313 313 311 310 310 309 308 308 308 308 308 308 308 307 307 307 306 305 305 305 305 305 304 304 304 304 303 304
318 317 316 314 314 313 311 310 310 309 308 308 307 308 308 308 307 307 306 306 305 305 305 304 304 304 304 304 305 304 304 303
316 316 315 315 314 314 313 311 310 309 308 308 308 307 307 306 306 306 306 306 306 306 305 305 304 304 304 304 303 303 303 304
316 315 315 315 314 314 313 313 311 310 309 308 307 307 306 306 305 305 305 306 306 306 305 305 304 303 303 303 304 303 303 304
317 316 315 314 313 314 313 313 312 311 310 309 307 307 306 306 305 305 305 304 304 304 304 303 303 303 302 302 301 301 302 303
316 316 315 315 314 312 312 312 312 312 311 309 308 306 306 306 305 305 304 303 302 301 301 300 299 299 299 298 298 298 298 299
317 316 316 315 314 313 313 312 312 312 311 311 308 307 305 305 305 304 302 302 300 299 298 297 297 296 296 295 295 295 296 297
317 318 317 315 314 314 313 312 312 312 311 311 310 307 306 305 304 303 300 298 298 298 297 296 295 294 294 294 294 294 295 295
318 317 316 315 314 314 313 313 313 312 311 311 309 307 305 304 302 300 298 297 296 296 295 295 294 294 294 294 294 294 294 294
317 316 315 314 314 314 313 313 311 310 309 309 307 305 303 301 298 297 296 296 295 295 294 293 293 293 293 293 293 293 293 294
317 316 314 313 313 312 311 310 308 307 306 305 303 301 300 298 296 296 295 295 294 294 293 293 292 292 292 292 292 292 292 292
315 314 313 313 313 312 312 309 306 305 304 302 300 299 297 296 295 295 295 294 294 293 292 292 292 292 292 291 291 291 291 291
314 314 313 312 311 311 311 307 305 303 301 299 298 297 296 295 296 295 295 294 293 292 292 292 291 291 291 290 290 290 290 290
314 313 312 311 311 310 309 305 303 301 299 298 297 296 295 296 295 294 294 293 293 292 291 291 290 289 289 289 289 289 289 289
313 312 311 310 310 309 305 303 302 300 299 297 297 298 297 296 295 294 293 292 292 291 290 289 289 289 289 289 288 288 287 287
312 311 309 309 309 308 302 301 300 299 298 300 299 298 296 295 294 293 292 292 291 289 289 289 289 288 288 287 287 286 286 286
311 309 308 308 307 303 301 301 301 301 300 298 297 296 295 293 292 292 292 290 289 289 288 288 287 287 287 286 285 285 284 284
309 308 308 307 303 301 301 302 301 298 297 297 297 294 293 292 292 291 289 289 288 288 287 287 286 286 285 284 283 283 284 284

GFSFLT1_925_thetae_009.txt.gz
Theta_e
315 316 316 315 315 314 312 312 311 309 311 310 310 310 309 309 312 312 310 308 306 306 307 306 305 305 305 305 304 304 303 303
315 315 315 314 314 313 312 311 310 310 309 308 308 309 309 309 309 308 310 308 307 306 305 306 305 305 304 305 304 304 304 303
314 315 314 314 313 313 312 312 310 310 309 308 308 307 307 307 308 308 308 307 307 306 305 305 304 304 303 303 304 304 304 303
312 313 315 314 314 314 313 312 311 310 309 309 308 307 307 308 307 308 307 306 306 305 305 305 304 304 304 304 304 303 303 304
312 313 313 314 314 314 314 313 312 312 310 309 308 308 307 307 307 306 306 306 306 306 306 306 305 304 303 304 304 302 301 302
312 313 314 314 313 313 314 314 313 313 312 311 309 308 308 307 307 306 306 305 306 306 306 304 303 303 303 301 300 300 298 298
312 315 315 314 314 313 312 312 312 312 312 312 311 310 308 307 306 306 305 304 304 303 303 302 301 299 297 296 296 295 295 294
313 314 313 314 314 313 313 313 313 312 312 312 312 311 310 308 307 306 305 303 300 299 298 298 298 297 298 297 295 294 293 293
313 314 314 313 314 314 314 313 313 313 313 312 311 311 311 310 307 305 304 300 298 297 296 295 295 295 295 295 295 293 293 293
315 313 313 313 313 313 311 311 311 310 310 309 308 308 309 307 305 302 298 297 296 296 296 295 295 295 295 294 294 293 293 293
312 311 312 312 312 312 311 311 310 310 307 307 306 305 304 302 299 297 296 295 296 296 296 297 295 294 294 292 292 292 292 292
310 311 312 312 311 311 310 309 309 309 306 305 304 302 301 298 297 296 297 296 296 296 295 294 294 293 292 292 292 292 292 291
310 310 311 311 311 310 309 309 309 305 304 302 300 299 298 296 296 295 295 295 294 295 294 293 292 292 292 292 291 291 290 290
310 310 310 309 309 309 309 308 305 303 301 299 298 297 296 295 295 295 295 294 294 293 293 293 292 291 291 290 289 289 289 289
310 309 309 308 307 307 308 305 302 302 299 298 297 297 296 296 296 295 295 294 294 293 292 292 291 290 289 289 289 289 289 288
310 310 308 307 307 307 305 300 300 300 298 297 298 298 297 296 296 294 294 293 292 292 291 290 289 289 288 288 288 287 287 286
310 309 308 308 307 306 302 301 301 300 300 298 297 297 296 296 295 294 293 292 292 290 289 289 288 287 287 287 287 285 285 284
309 308 307 306 305 301 301 301 302 300 298 297 297 297 295 295 294 292 292 291 289 288 288 287 287 286 286 285 284 284 284 284
307 306 305 303 302 302 301 300 301 298 298 297 296 296 295 293 292 291 290 288 288 287 286 286 285 285 284 284 284 284 284 284

GFSFLT1_925_thetae_012.txt.gz
Theta_e
314 313 314 314 315 315 314 313 311 310 310 311 311 311 310 310 310 311 311 312 309 306 308 308 306 305 304 304 304 303 304 303
311 313 314 314 313 313 313 312 311 310 310 310 310 309 309 309 309 308 311 311 309 307 305 306 306 305 304 305 304 304 304 303
311 312 314 314 313 313 313 312 312 311 310 310 309 309 308 308 307 308 310 309 309 308 306 305 305 305 305 304 303 304 303 302
311 312 313 313 313 313 314 313 313 312 312 310 309 308 308 307 307 307 307 308 309 308 307 306 305 304 304 304 304 303 303 303
310 311 312 313 314 313 313 313 313 312 311 310 309 309 307 308 307 307 307 307 308 307 306 305 305 304 304 304 303 302 301 300
310 311 313 314 313 313 313 313 313 313 312 312 311 309 309 309 308 307 307 306 306 306 306 305 305 305 304 301 299 296 294 294
311 313 313 313 313 312 312 312 312 312 312 312 311 311 311 309 309 308 307 305 305 306 305 306 302 299 298 298 297 295 295 296
309 311 311 312 313 313 312 312 312 311 311 310 310 311 311 310 310 308 306 304 303 302 300 297 296 295 295 296 297 298 299 298
311 311 311 312 312 312 311 311 311 310 309 309 309 309 309 308 308 309 306 303 299 296 295 295 296 297 297 297 296 297 295 293
309 311 311 311 311 311 310 310 309 309 308 309 307 307 306 306 307 306 303 298 296 296 296 296 297 296 297 295 293 293 293 293
309 309 310 311 311 311 310 309 308 308 308 305 305 305 305 304 302 299 296 296 296 297 298 298 296 294 294 293 293 292 292 292
308 309 310 310 310 310 309 308 308 307 303 303 304 302 301 300 298 296 296 296 298 299 297 295 294 293 293 293 292 292 292 291
308 309 309 309 309 308 307 307 307 303 303 302 302 299 297 297 296 296 295 295 296 295 294 294 293 293 292 292 291 290 289 289
308 308 309 309 308 307 307 306 302 302 302 301 299 297 296 295 295 295 295 295 294 293 293 293 293 292 291 290 289 289 288 288
309 307 308 308 307 307 306 303 301 302 299 297 296 296 295 295 295 295 295 294 293 293 292 292 291 290 289 288 288 288 288 287
308 307 307 307 307 306 305 301 301 301 300 297 296 297 296 295 294 294 295 296 293 292 291 290 289 288 287 287 287 287 286 285
309 308 307 307 306 304 302 301 301 301 301 299 297 297 296 296 295 294 295 294 292 290 289 288 287 286 286 286 285 284 284 284
307 307 307 306 304 302 301 300 300 299 298 298 298 297 295 294 294 294 293 291 289 288 287 286 286 286 285 284 284 283 284 284
307 307 306 304 302 300 300 299 299 299 298 297 296 296 296 295 293 290 289 288 287 286 286 285 285 285 285 283 283 283 283 283

GFSFLT1_925_thetae_018.txt.gz
Theta_e
311 313 316 317 317 318 317 317 316 315 315 315 314 313 313 311 311 310 310 310 310 311 311 310 310 311 310 309 306 304 304 303
309 309 311 313 314 314 316 316 315 314 314 314 311 311 311 310 310 310 309 309 309 310 311 311 310 309 308 308 306 304 304 303
308 309 311 312 313 315 315 314 313 312 313 312 310 309 309 309 310 310 309 309 308 308 309 310 310 308 308 308 305 304 303 303
309 310 311 313 314 314 314 313 312 310 309 308 308 308 308 308 309 309 310 308 307 307 307 307 308 309 307 307 306 304 303 303
309 309 310 311 311 311 311 310 310 310 309 309 309 309 308 309 309 309 309 309 309 308 307 306 307 308 307 306 305 304 303 302
305 307 308 309 309 309 310 310 310 310 309 309 308 308 308 307 307 306 307 307 307 306 306 305 304 307 306 304 304 303 302 301
306 308 308 309 310 310 311 311 310 310 309 308 307 306 305 304 304 304 305 305 305 305 305 304 303 304 303 301 299 297 296 296
305 305 308 309 310 310 310 310 309 308 306 307 306 304 305 305 304 304 304 304 304 303 302 302 300 298 297 296 297 298 298 297
305 306 308 309 309 309 309 308 308 307 306 307 305 304 304 302 302 302 303 303 301 299 298 297 297 297 297 297 297 297 296 295
306 307 309 310 310 309 309 308 307 306 306 305 303 303 303 301 301 302 302 300 298 297 297 297 297 297 298 297 295 293 293 292
307 309 310 309 309 308 308 307 306 305 305 302 303 303 302 301 300 300 299 298 296 297 298 298 298 298 296 295 292 293 293 293
306 308 309 309 309 308 307 306 305 305 303 303 303 301 300 299 298 297 297 296 297 298 297 295 296 295 293 293 294 293 292 291
306 308 309 308 308 308 308 306 305 304 302 302 300 300 299 296 295 295 295 296 295 294 294 293 293 293 293 292 291 290 290 288
307 309 308 309 308 307 308 306 305 302 301 300 299 299 297 294 294 294 294 294 294 294 293 293 293 292 291 290 288 288 287 287
309 306 307 308 307 306 307 306 303 301 300 299 299 296 293 293 294 294 294 294 294 293 292 292 290 289 287 287 286 286 286 286
306 307 306 305 305 305 306 304 301 300 299 298 297 295 295 294 294 294 293 293 292 293 291 288 287 286 286 286 285 285 285 284
305 303 301 302 304 304 301 300 300 299 298 297 297 297 296 295 293 293 293 293 294 292 287 286 286 285 284 284 284 284 284 284
302 301 303 303 300 299 299 298 299 298 298 298 297 296 296 295 294 294 293 290 287 286 286 285 284 284 283 283 283 283 283 283
300 302 299 298 296 296 297 298 296 295 295 294 293 293 292 291 290 288 287 287 286 285 284 284 283 283 282 281 282 282 282 282

GFSFLT1_925_thetae_021.txt.gz
Theta_e
313 314 313 316 319 322 322 319 317 317 316 315 315 314 312 311 311 310 310 310 310 310 310 310 310 311 311 312 312 310 307 305
310 311 311 313 315 318 318 317 316 316 315 314 313 311 310 309 309 309 308 308 308 308 309 309 310 311 310 310 310 309 307 305
311 310 310 311 313 314 314 314 313 311 310 311 310 308 308 308 309 310 310 309 309 308 307 307 308 310 310 310 309 308 306 306
312 311 310 309 309 309 310 309 308 308 308 309 309 309 309 309 309 309 308 308 307 307 307 307 307 307 308 308 309 308 308 306
309 309 308 308 308 309 309 310 309 309 308 308 307 308 308 307 306 306 305 305 305 305 305 306 306 307 307 307 307 307 306 307
309 308 308 308 309 309 309 309 309 309 307 306 307 306 305 305 305 304 304 303 303 304 304 304 304 305 306 305 306 304 305 304
309 309 309 309 309 309 309 309 308 307 306 306 306 304 304 304 304 303 302 302 303 303 303 302 302 302 302 301 300 300 300 300
311 310 310 310 309 308 308 308 307 306 306 305 305 304 304 304 303 302 301 301 302 301 300 300 299 298 298 298 299 299 298 297
310 310 310 310 309 309 308 308 307 305 304 304 304 303 303 302 301 300 300 300 299 299 298 298 298 297 298 297 297 296 296 294
312 311 311 310 309 308 308 307 306 304 304 304 303 303 302 300 300 299 298 298 298 298 298 298 297 298 297 297 296 296 292 292
312 311 311 310 309 308 308 308 306 305 304 303 302 301 300 299 298 297 296 296 297 297 297 297 296 296 295 294 294 294 293 293
311 310 310 309 309 308 307 307 306 305 304 301 301 300 298 297 295 295 295 296 297 297 295 295 294 294 294 293 293 294 293 293
310 309 309 308 307 305 305 306 306 305 302 301 300 298 298 295 294 294 295 294 294 294 293 293 292 292 293 292 291 290 290 289
310 309 308 306 304 304 305 305 305 302 300 300 299 297 296 294 294 294 294 293 294 293 292 292 293 292 290 288 287 288 288 287
310 308 306 304 303 304 304 303 301 300 299 299 298 296 295 295 294 294 294 294 293 293 292 291 288 287 287 287 287 287 286 286
308 305 302 302 303 301 299 299 299 299 299 298 297 296 296 295 294 294 294 294 293 293 293 289 286 286 285 285 285 286 285 285
304 302 303 301 298 297 297 297 298 298 297 297 297 297 296 295 294 294 294 294 293 289 286 285 285 285 284 283 283 284 284 283
302 302 299 297 296 296 297 297 296 296 296 296 295 293 294 293 292 289 288 287 286 286 285 285 285 284 283 282 282 282 283 283
302 299 297 296 295 296 296 296 295 294 294 294 292 290 289 288 288 287 287 286 285 285 284 284 283 283 281 281 282 282 282 282

GFSFLT1_925_thetae_024.txt.gz
Theta_e
327 324 323 322 323 325 326 327 326 324 322 321 319 319 318 317 315 314 314 314 314 315 315 315 316 316 315 315 316 315 314 312
318 316 315 316 318 321 324 323 322 320 319 318 317 316 314 313 313 312 313 313 313 313 313 314 314 315 315 315 314 315 315 313
316 316 316 316 316 316 317 315 314 313 312 312 312 312 312 313 313 313 313 312 311 311 311 311 312 312 313 314 314 315 314 313
317 315 315 315 314 314 314 313 313 313 313 313 313 313 313 313 311 311 310 309 308 308 308 309 310 310 311 311 312 313 314 313
315 315 315 315 314 314 314 313 313 312 312 312 312 312 311 310 310 309 308 307 307 306 307 307 308 308 308 309 309 310 311 312
315 315 314 314 314 314 314 313 312 312 311 311 311 311 310 310 309 308 307 306 305 305 305 305 306 306 306 307 308 308 309 309
315 314 314 314 314 313 313 312 311 310 310 310 309 308 307 307 306 305 304 303 303 303 304 304 304 305 304 304 304 304 304 305
316 315 315 314 314 313 312 312 311 309 309 308 307 306 305 305 304 303 303 302 302 302 303 303 303 303 302 301 300 300 298 297
316 314 314 314 313 313 312 312 311 309 308 307 306 305 305 304 303 303 302 301 301 302 302 302 301 301 300 300 300 297 296 295
315 314 314 314 313 313 312 310 309 309 307 307 307 305 305 304 302 301 300 300 300 300 301 300 300 300 298 298 297 296 294 295
315 314 313 312 312 312 311 308 308 308 308 307 305 305 304 302 300 299 299 299 300 300 300 298 296 295 295 296 296 296 296 295
314 312 312 311 310 309 307 307 307 307 307 305 305 304 302 300 299 298 299 299 298 296 295 294 294 293 293 294 294 294 294 293
313 312 311 310 308 306 306 306 305 304 303 303 303 302 300 299 298 297 297 297 296 294 294 293 294 294 294 294 293 292 291 291
312 311 310 308 305 305 304 302 300 300 300 301 301 300 299 298 298 296 296 295 296 295 295 295 293 292 292 291 290 290 290 290
312 311 308 305 304 302 299 299 299 299 300 300 299 299 298 298 297 296 296 296 295 295 294 294 293 291 290 289 289 288 288 288
311 308 305 304 301 298 298 298 299 299 299 298 298 299 297 296 295 294 295 295 294 293 292 291 290 289 288 286 286 286 287 287
307 303 304 301 299 298 298 298 298 298 298 297 297 296 296 296 295 294 292 291 290 290 289 289 288 288 286 284 283 284 285 285
303 304 302 299 298 297 298 298 298 297 297 296 295 294 293 292 291 291 290 290 289 288 288 288 287 287 285 283 282 283 284 285
302 303 300 299 297 296 297 297 297 296 295 295 293 292 291 291 290 290 289 288 288 288 287 287 286 285 283 282 281 282 284 284

GFSFLT1_925_thetae_027.txt.gz
Theta_e
327 329 326 325 325 327 328 329 331 329 326 323 321 320 319 318 317 316 316 316 316 316 316 317 317 317 317 317 318 317 317 317
322 321 321 321 322 324 326 328 326 324 323 321 319 318 317 316 315 315 316 316 315 315 314 314 314 314 315 315 316 317 318 317
320 320 320 319 319 320 320 319 318 317 316 316 316 316 316 316 316 315 314 314 313 312 311 311 311 311 312 312 314 315 316 316
320 319 319 319 318 318 317 317 316 316 316 316 315 315 315 315 315 315 314 313 311 310 309 309 309 309 309 310 311 312 313 313
319 319 318 318 318 317 317 316 316 315 315 315 316 316 316 316 315 313 312 311 309 308 307 307 307 308 308 308 308 310 310 311
319 318 318 318 317 317 316 315 315 314 314 314 314 314 312 311 311 310 308 306 306 305 305 305 306 306 306 307 307 307 308 308
318 318 317 317 317 317 316 315 315 314 313 312 312 311 309 308 308 307 306 306 305 304 304 304 305 305 306 305 305 304 304 303
319 318 318 317 317 316 316 315 315 313 312 311 310 309 308 307 307 306 306 304 303 302 303 304 304 304 303 302 302 301 300 299
317 317 317 317 316 316 316 315 313 311 311 310 309 309 308 307 307 306 304 302 301 302 302 302 302 301 300 299 299 298 296 295
317 316 316 315 314 314 314 313 311 310 310 310 309 309 307 307 306 304 301 301 301 302 300 300 299 298 297 297 296 297 297 297
317 315 314 313 313 312 311 310 309 309 309 308 307 306 305 304 303 301 300 300 300 299 297 297 296 295 295 295 295 295 294 294
316 314 314 313 312 311 309 309 308 306 304 303 303 303 303 302 301 300 300 299 298 298 297 296 295 296 295 295 295 295 294 294
314 313 313 312 310 308 307 306 303 301 300 300 301 301 301 301 300 298 298 298 297 297 296 296 296 296 294 294 294 293 292 292
314 313 312 311 309 307 304 301 300 300 300 300 300 300 300 299 299 298 297 297 297 297 296 296 295 294 293 293 292 292 291 290
313 312 311 309 307 304 301 299 299 300 300 299 299 299 300 299 298 296 297 297 296 295 295 294 293 291 291 290 290 289 288 288
313 311 309 306 304 301 300 299 299 299 299 299 298 297 298 297 297 296 296 295 293 292 292 291 290 290 289 288 288 287 286 287
311 307 304 304 301 301 299 299 299 299 299 298 297 296 295 295 294 294 293 292 292 291 290 290 290 289 287 286 285 285 284 285
305 302 303 303 301 300 298 298 298 298 298 297 296 295 295 294 293 293 292 291 290 290 289 289 289 288 286 285 284 284 283 285
301 302 303 302 300 299 298 297 297 297 297 296 295 295 294 293 292 291 291 289 289 289 288 288 287 287 286 284 282 283 284 284

GFSFLT1_925_thetae_030.txt.gz
Theta_e
327 326 325 325 325 326 328 329 332 331 328 325 323 321 321 320 319 317 316 316 317 316 316 315 316 316 316 316 317 317 318 318
322 322 323 323 324 326 326 327 325 324 324 321 319 318 317 317 316 316 316 316 316 314 313 313 312 312 313 313 313 314 315 316
322 321 321 320 320 320 320 319 318 318 317 317 316 316 317 317 317 316 315 315 314 313 312 311 310 310 310 310 311 312 313 313
322 321 320 319 319 318 318 317 317 316 315 316 316 316 316 316 316 316 315 313 312 311 308 307 307 308 309 308 308 309 311 311
320 320 320 319 319 318 317 317 316 316 316 316 316 316 316 313 312 312 311 309 308 306 306 305 305 306 307 307 308 307 308 309
320 320 319 319 318 318 317 316 316 315 315 314 314 313 312 311 309 309 307 307 306 305 303 303 304 304 304 307 306 305 305 303
319 318 318 319 318 318 317 316 316 315 314 313 312 311 310 309 309 308 308 307 305 303 302 302 304 305 304 303 302 302 301 300
319 318 318 318 317 317 317 316 315 313 312 312 311 310 310 309 308 308 307 305 303 302 302 303 303 302 301 301 300 300 299 298
318 317 317 317 315 314 314 314 313 311 310 311 311 310 309 308 307 306 304 302 301 302 302 301 300 300 299 299 298 298 298 297
318 317 316 315 314 313 313 312 311 310 310 309 307 307 306 306 305 303 302 301 301 300 298 298 298 297 297 296 296 296 295 296
318 316 315 314 314 313 312 310 309 309 306 303 302 302 303 303 303 302 301 300 299 299 297 298 297 296 296 296 295 295 295 295
317 315 314 314 312 311 309 308 307 303 301 301 301 301 301 302 301 300 299 298 298 298 297 296 296 296 296 296 295 295 295 294
316 314 313 312 311 309 308 305 302 301 300 300 301 301 300 300 300 300 299 298 297 297 297 297 296 295 295 294 294 293 292 292
315 313 313 312 310 308 305 302 300 300 300 300 300 300 300 300 300 299 297 297 297 297 295 295 295 294 293 291 291 291 290 289
314 313 312 310 308 306 303 301 300 299 300 300 299 299 298 298 298 297 297 296 296 295 294 293 292 291 290 290 290 289 288 287
312 311 308 306 306 304 302 301 299 299 299 299 299 298 297 296 296 296 295 294 293 293 292 291 290 290 289 288 287 286 286 286
310 307 305 304 304 303 302 300 299 298 298 299 298 297 296 295 295 294 294 293 293 291 290 290 290 289 287 286 285 285 285 284
307 305 304 304 304 302 300 300 299 298 297 298 297 296 296 295 294 294 293 292 290 290 289 289 288 288 286 286 285 284 283 283
304 303 303 304 302 301 301 301 299 298 297 296 296 295 294 294 294 293 292 290 289 289 289 288 287 286 286 285 284 283 282 282

GFSFLT1_925_thetae_033.txt.gz
Theta_e
322 323 325 326 327 328 329 331 330 328 326 325 324 322 321 320 319 317 316 316 316 316 315 313 313 312 311 312 311 310 310 311
320 320 321 322 322 321 322 319 318 318 317 318 317 316 316 316 317 316 315 315 315 314 313 312 310 309 309 308 309 309 308 307
320 319 319 319 318 318 318 318 317 316 316 316 317 317 317 316 316 315 314 313 311 310 307 306 306 307 307 308 307 307 307 309
319 318 318 318 317 317 316 316 316 314 315 316 316 315 315 314 312 310 309 308 307 306 305 304 303 304 304 304 305 307 307 307
318 318 318 318 317 317 316 316 316 315 314 314 314 314 313 311 310 309 307 307 306 304 303 302 302 303 303 304 305 304 304 302
316 318 318 318 317 317 316 316 315 314 314 313 313 312 311 310 309 308 308 307 305 304 303 302 301 304 304 303 302 301 301 300
316 318 318 318 317 317 317 316 314 311 311 311 311 310 310 309 308 308 306 305 303 302 301 302 302 302 300 300 300 300 299 299
313 314 316 317 316 315 314 313 312 311 310 310 310 309 308 308 307 306 304 303 301 301 301 300 298 299 299 299 299 298 298 297
313 315 315 314 313 313 313 313 311 310 309 306 305 304 304 305 304 303 302 302 301 301 301 298 297 297 296 296 296 296 295 295
313 314 314 314 314 313 312 310 309 307 303 302 301 301 301 301 302 302 301 300 299 299 298 298 297 296 296 296 295 294 295 295
314 313 314 313 312 311 309 308 305 302 301 300 300 300 301 302 301 300 300 299 298 298 298 297 297 296 296 296 296 295 295 295
311 312 312 312 311 309 307 303 301 300 300 300 300 300 300 300 300 299 299 298 298 297 297 297 296 296 295 295 294 294 294 293
311 312 312 310 309 307 303 301 300 300 299 300 300 299 300 300 298 298 298 296 296 297 296 295 294 294 293 293 292 291 291 290
310 309 308 307 306 304 302 301 300 299 299 299 299 299 300 299 297 297 296 296 296 295 295 293 292 291 290 290 290 289 288 288
309 308 306 304 304 304 303 301 300 299 299 298 298 299 299 297 297 295 295 295 294 293 293 292 290 290 290 288 287 287 286 285
307 305 304 304 304 304 304 301 300 299 298 298 298 299 297 296 295 295 295 294 293 292 291 290 289 289 288 287 286 286 285 284
305 303 303 303 303 303 302 301 300 300 298 298 297 297 297 296 295 295 294 293 292 290 289 289 288 288 287 286 286 285 284 282
303 302 302 302 303 303 303 301 301 300 299 298 297 297 296 295 295 294 293 292 290 289 289 288 288 287 286 284 284 284 284 283
302 302 302 303 303 301 297 297 297 298 298 298 297 296 295 294 293 294 292 290 289 289 288 288 287 286 285 284 284 284 283 283

GFSFLT1_925_thetae_036.txt.gz
Theta_e
319 320 324 326 329 331 331 330 329 329 326 323 322 320 317 318 318 317 316 316 316 315 313 312 311 310 308 308 308 308 308 306
318 319 320 322 319 319 322 322 319 322 319 317 316 316 315 316 315 314 313 312 311 310 308 307 306 306 306 306 305 305 304 306
317 317 317 317 317 317 316 315 315 316 316 316 316 316 314 311 310 309 308 308 307 305 305 304 303 303 303 303 303 304 306 306
317 316 316 316 316 316 315 315 315 314 314 314 314 313 313 312 309 308 307 307 306 305 304 304 303 302 301 302 303 304 304 304
316 316 317 316 316 316 316 315 315 314 314 313 312 312 311 310 309 308 307 306 306 306 305 303 301 302 303 303 302 301 301 301
315 316 317 317 316 316 315 314 314 313 312 312 311 310 310 309 308 308 308 307 306 305 303 302 300 301 300 299 299 300 299 299
315 317 317 317 317 316 315 313 312 311 311 310 310 310 309 308 307 307 306 304 302 302 301 300 299 298 298 298 298 298 297 297
314 315 316 317 316 315 315 314 310 310 310 308 307 306 305 305 305 304 303 302 301 301 300 298 297 296 296 296 296 295 295 295
312 314 316 314 313 313 312 311 309 307 305 303 301 301 301 301 301 302 302 301 300 299 298 298 297 296 295 295 295 295 294 294
312 313 312 312 312 312 311 309 305 302 301 300 300 300 300 301 301 301 300 299 298 298 298 298 297 296 296 296 295 295 295 295
311 311 311 310 310 308 308 306 304 301 300 300 300 300 300 300 300 300 299 298 298 297 297 296 296 296 295 294 294 294 293 293
310 309 308 307 307 306 304 302 301 300 300 299 300 300 299 299 299 299 297 295 295 295 296 296 295 294 293 293 292 292 291 291
307 306 306 305 305 303 302 301 300 300 299 299 299 299 299 299 299 299 296 294 294 295 294 294 293 292 290 290 290 289 288 287
307 306 304 304 304 304 302 301 300 300 299 299 299 298 298 299 299 297 295 295 295 294 293 292 292 290 289 289 288 287 286 286
306 303 303 303 303 303 303 303 301 300 299 299 298 298 297 299 297 296 295 295 294 293 292 290 289 289 289 288 287 286 286 285
304 302 302 302 303 303 303 303 301 300 300 299 298 298 297 297 297 296 295 294 294 293 291 289 289 288 288 287 286 284 284 283
303 302 301 302 302 302 301 298 297 297 298 298 299 298 297 297 296 295 295 293 292 290 289 289 288 287 286 285 284 284 284 284
302 301 301 301 301 298 296 295 295 294 295 296 296 295 296 295 294 294 293 292 290 289 289 288 287 286 285 284 284 284 284 283
300 301 301 297 296 295 294 294 294 294 295 296 295 295 295 295 294 292 290 290 289 289 288 287 286 284 284 284 283 283 283 282

GFSFLT1_925_thetae_039.txt.gz
Theta_e
317 319 324 327 329 329 328 326 327 328 323 318 315 316 316 315 315 315 315 315 314 313 311 309 308 307 306 305 304 304 303 303
317 317 321 326 327 328 328 328 326 325 320 317 315 315 314 313 311 311 311 311 310 309 308 306 305 304 303 303 302 301 301 303
315 317 317 317 316 316 316 316 316 316 315 315 315 313 312 312 311 310 309 308 308 307 306 305 305 304 301 301 302 303 304 304
315 314 315 315 315 315 314 314 314 314 313 313 312 312 311 310 309 308 307 307 306 306 305 305 303 300 301 302 302 301 300 300
315 314 314 314 315 315 315 314 314 314 313 313 312 311 311 309 308 307 306 305 305 305 303 302 300 300 299 299 299 299 300 300
314 315 315 314 314 315 314 314 313 312 312 311 311 310 310 309 308 307 306 305 304 302 301 301 300 299 297 297 298 299 298 298
315 315 315 315 314 313 313 312 310 310 310 310 310 309 309 308 306 306 305 303 302 301 300 299 297 296 296 296 296 295 295 296
313 314 315 316 315 313 312 311 310 309 309 308 307 305 304 303 303 302 302 302 301 300 299 298 297 296 295 295 295 294 294 294
314 315 315 314 313 311 310 310 309 307 306 303 301 300 300 300 300 301 301 301 300 298 297 297 296 296 296 295 295 295 295 295
312 311 311 310 310 310 309 308 305 302 301 300 300 300 300 299 300 300 300 299 298 297 297 297 296 296 296 296 295 294 294 293
309 309 308 309 308 308 307 304 303 301 300 300 300 300 299 299 299 299 299 299 296 295 296 296 296 296 294 294 293 292 292 292
306 306 306 307 306 305 303 302 301 300 300 300 299 299 299 299 299 299 299 297 295 294 294 295 295 293 292 291 291 290 290 289
306 305 304 304 304 302 301 300 300 300 300 300 300 299 298 298 298 299 299 297 294 294 294 294 294 292 291 290 289 289 288 287
303 303 303 303 303 303 303 303 303 300 299 299 299 298 297 297 297 298 298 296 295 295 294 293 292 290 289 289 288 287 286 286
304 303 302 302 302 302 302 301 300 299 299 298 298 298 297 297 297 297 297 296 295 295 293 292 291 289 288 288 287 286 285 284
303 302 301 301 301 300 298 296 295 295 294 295 296 295 294 294 295 296 296 295 294 293 292 292 289 288 288 287 286 285 284 284
302 301 300 300 299 296 295 294 294 294 294 295 294 294 293 294 294 295 295 293 293 292 291 288 288 287 286 285 284 284 284 284
301 300 299 297 296 294 293 293 293 294 294 295 295 293 293 293 293 294 294 293 292 290 288 289 286 286 285 284 284 284 283 283
299 299 296 294 293 293 293 293 293 293 294 294 292 292 292 292 293 293 292 291 290 290 288 286 285 284 284 283 283 282 281 280

GFSFLT1_925_thetae_045.txt.gz
Theta_e
319 321 322 323 324 325 324 324 325 323 324 323 321 319 315 315 313 313 312 311 309 308 307 306 305 305 304 303 301 301 302 302
320 322 324 325 325 325 325 325 323 326 323 320 312 311 311 311 310 309 309 308 308 307 306 306 305 303 301 300 301 301 301 301
319 321 323 325 326 326 325 326 325 324 320 314 313 311 310 309 309 308 307 306 306 306 306 305 303 302 300 299 300 299 299 300
317 317 318 320 322 324 322 320 320 318 315 313 312 310 309 308 308 308 307 306 306 306 305 303 301 300 300 298 298 299 298 299
316 315 314 314 315 315 314 314 313 313 313 312 311 311 311 309 308 307 306 306 306 304 302 301 300 298 296 297 297 298 298 298
317 315 314 312 312 312 312 312 312 312 311 311 310 309 309 308 307 307 306 305 303 302 301 300 299 297 295 295 297 296 296 296
315 314 313 313 312 312 312 312 312 311 311 310 309 308 306 305 303 303 301 300 300 300 300 299 299 297 296 296 295 295 296 296
316 315 313 313 312 311 311 310 309 309 308 307 304 301 300 299 299 299 299 299 298 299 299 299 298 297 296 296 295 295 296 295
316 315 314 314 312 310 309 309 308 305 303 302 301 300 300 299 299 298 298 298 298 298 299 299 297 297 296 296 296 296 295 295
316 315 314 312 310 309 309 307 304 302 301 300 300 300 299 299 299 299 298 298 298 298 298 298 296 295 296 296 296 295 294 293
311 310 308 307 306 306 305 303 301 300 300 300 299 299 298 298 298 298 298 298 298 298 298 297 295 294 295 295 294 293 292 292
307 305 304 302 301 301 300 300 300 301 300 298 298 299 298 298 297 296 296 296 296 297 298 297 294 295 295 294 293 292 290 289
305 304 304 304 303 302 302 302 301 301 299 298 295 294 294 295 294 293 293 293 293 295 296 295 295 294 294 292 291 289 288 287
305 303 303 303 302 301 300 298 295 294 294 294 293 294 294 293 293 292 292 292 292 293 295 295 294 293 292 291 289 288 286 286
304 303 302 301 301 299 296 295 294 293 293 293 293 294 293 293 292 292 291 291 293 293 293 293 292 291 290 287 287 286 286 285
303 302 301 300 298 296 294 293 293 293 293 293 294 294 293 292 292 291 291 292 293 292 291 291 290 289 288 287 286 286 286 285
302 301 299 298 296 294 293 293 293 292 292 293 293 293 293 292 291 291 292 292 291 290 290 288 288 288 287 286 286 285 284 283
301 300 297 296 294 292 293 292 292 292 292 292 292 293 292 291 291 292 292 292 291 290 289 288 287 286 285 284 284 283 282 281
301 298 295 293 292 292 292 292 291 290 291 290 291 291 291 292 292 291 291 291 291 290 290 287 285 285 284 283 282 282 281 280

GFSFLT1_925_thetae_048.txt.gz
Theta_e
326 328 328 327 328 329 329 328 323 323 323 320 317 320 317 314 313 313 312 312 312 311 311 310 310 310 309 307 306 305 304 303
328 329 329 329 329 328 329 326 325 324 322 322 318 316 314 313 312 312 311 311 310 311 310 310 309 308 306 305 303 302 301 301
328 330 330 330 330 329 329 327 326 326 324 320 317 316 313 313 311 311 310 310 310 309 309 308 306 304 303 302 301 301 300 300
329 329 330 330 330 329 327 327 326 323 319 317 316 314 313 312 312 311 309 309 309 309 307 305 304 302 301 301 300 300 300 299
324 321 321 322 323 323 322 322 321 319 317 316 314 314 314 313 312 311 310 309 308 306 304 303 302 301 301 300 298 299 299 298
320 319 318 318 318 318 317 316 316 315 315 315 315 314 313 312 311 309 308 307 305 303 302 302 302 301 300 300 299 299 298 298
319 318 317 317 317 317 316 315 314 314 314 314 313 312 309 307 306 305 304 303 302 302 302 302 301 301 300 300 299 298 298 297
320 319 318 317 317 316 316 315 314 313 312 310 308 306 305 304 304 303 302 301 301 301 301 301 301 300 300 299 298 297 297 297
320 319 318 318 317 316 315 314 312 310 308 306 305 304 304 304 303 302 302 301 301 301 301 301 301 300 300 299 298 297 297 296
321 319 319 319 317 315 315 312 309 306 303 303 303 303 303 302 302 302 302 302 301 300 300 300 300 299 299 298 297 297 296 296
320 319 318 317 315 313 310 307 304 302 302 302 302 302 302 302 301 301 300 299 298 298 298 298 297 298 297 297 296 295 295 294
318 316 314 312 310 308 306 304 303 302 300 301 302 301 299 298 298 297 296 296 295 294 295 295 296 296 296 296 296 295 294 293
314 312 309 308 307 305 304 305 302 301 301 299 298 298 297 296 296 295 295 294 294 294 295 295 295 296 296 295 294 294 292 291
312 310 309 308 305 304 302 301 299 298 297 297 297 297 296 295 295 295 294 294 294 294 295 295 295 295 294 293 292 291 290 290
312 310 308 305 303 302 301 298 297 297 297 296 295 295 296 295 294 294 294 294 294 294 294 294 293 292 291 290 290 290 290 289
311 309 306 304 302 299 298 297 296 296 295 294 294 295 295 295 294 294 294 294 294 293 293 292 292 291 291 290 290 289 289 288
309 307 304 302 300 299 296 296 296 295 294 294 294 294 294 295 294 294 294 294 293 293 292 292 291 291 288 287 287 288 288 286
307 305 302 300 298 296 297 296 295 294 293 292 292 292 293 294 293 294 293 293 293 293 292 292 291 290 286 285 285 286 286 285
305 303 300 298 296 296 295 294 293 293 292 292 292 292 292 293 293 293 293 292 292 291 291 291 290 289 285 284 283 285 285 284

GFSFLT1_925_thetae_051.txt.gz
Theta_e
328 328 328 327 327 330 332 331 325 323 321 322 321 320 317 319 316 314 314 314 314 313 313 313 312 311 311 309 308 306 305 304
329 330 330 330 331 332 331 328 327 327 326 325 322 321 318 315 314 314 314 313 313 313 312 312 311 309 308 307 305 303 303 302
331 332 332 332 332 331 330 329 328 328 325 325 323 319 316 315 314 314 313 313 312 311 312 310 309 307 305 304 303 303 302 301
333 333 332 331 330 330 331 328 327 325 322 320 319 317 316 314 315 314 313 312 311 311 309 308 306 304 303 303 302 301 301 300
331 331 331 331 329 327 325 324 324 321 319 317 317 315 316 316 315 314 313 312 310 308 306 304 304 303 303 302 301 301 300 300
326 325 325 324 324 323 323 322 320 319 318 317 317 317 316 315 314 312 310 309 307 306 304 303 304 303 302 302 301 301 300 299
322 321 320 321 321 320 319 318 318 317 317 317 317 316 314 312 310 308 307 305 304 303 303 303 303 302 302 301 301 300 299 299
322 321 320 321 320 320 319 318 317 317 317 315 313 311 309 308 308 307 305 303 303 303 302 302 301 301 301 301 301 300 299 298
322 321 321 320 320 320 319 318 317 316 314 311 309 308 308 307 306 304 304 303 303 303 302 301 300 300 300 300 300 300 299 298
323 321 321 321 320 320 319 318 315 312 309 307 306 306 305 305 304 304 303 302 301 299 299 299 299 298 298 298 299 299 298 297
323 322 321 321 320 319 318 316 312 307 306 305 303 303 304 304 303 301 300 299 298 297 296 296 296 296 297 297 297 297 297 296
323 322 322 321 320 317 314 310 307 306 304 303 303 304 302 300 300 299 297 297 296 296 295 295 296 296 296 296 297 296 295 295
323 322 319 318 316 313 310 308 306 304 303 303 301 300 300 299 298 297 297 296 296 296 295 296 296 295 295 295 295 295 294 293
321 319 316 314 312 310 309 305 303 300 302 300 299 299 298 297 297 297 296 296 296 295 295 295 295 296 295 294 293 293 293 292
319 317 315 313 311 308 304 303 302 300 299 299 297 297 297 297 297 296 296 296 295 295 295 295 294 293 293 293 292 291 291 291
318 316 314 311 308 305 304 302 300 299 298 297 296 296 296 296 296 296 296 295 295 295 295 294 293 292 292 291 291 291 290 290
317 315 312 310 307 304 302 301 299 298 297 296 295 295 294 295 295 295 295 295 295 295 294 293 293 292 290 290 288 289 289 288
316 313 310 308 304 302 300 299 298 296 295 294 294 293 293 294 294 294 295 295 294 294 293 292 293 293 290 288 286 286 287 287
314 311 308 304 302 299 299 297 296 295 294 293 293 293 293 293 294 294 295 294 294 292 292 292 291 292 288 287 285 285 287 287

GFSFLT1_925_thetae_054.txt.gz
Theta_e
325 325 324 324 329 333 333 330 326 325 323 321 322 322 319 318 314 312 315 315 314 314 314 313 312 311 310 309 307 305 304 303
328 328 328 328 329 334 332 329 325 323 321 323 322 321 320 316 315 315 314 314 314 313 313 312 311 309 307 306 305 304 303 302
330 331 331 331 334 332 329 329 326 326 327 327 324 321 318 315 315 315 315 314 313 312 312 310 308 307 304 304 303 303 302 301
333 333 333 333 332 332 330 330 328 328 327 323 322 319 317 315 315 315 314 313 312 310 308 307 305 304 304 303 303 302 302 301
333 334 332 331 330 329 330 330 329 326 321 320 319 317 316 316 316 315 314 313 311 309 307 305 305 304 304 303 303 302 301 302
332 333 332 332 331 331 329 325 324 321 319 318 317 318 317 316 315 313 311 310 309 307 306 305 304 304 303 303 303 303 301 300
329 329 328 327 326 325 324 322 320 319 319 318 318 317 315 312 310 309 308 307 305 304 304 304 303 302 302 302 302 301 301 300
325 324 323 323 322 321 320 319 319 318 318 318 317 313 310 309 309 308 306 305 304 304 303 303 302 301 301 301 301 301 300 300
323 322 322 322 322 321 320 319 318 318 317 314 311 309 308 308 306 306 305 304 304 303 302 300 300 299 299 299 299 300 300 300
323 322 322 322 321 321 320 319 318 317 314 310 308 307 306 305 305 304 304 303 301 299 298 297 297 296 296 297 298 298 299 298
323 322 322 322 321 321 320 319 316 312 309 308 307 305 304 305 304 302 301 300 298 297 297 296 296 296 296 296 296 297 297 296
323 323 323 322 321 320 319 318 311 308 307 304 303 305 304 302 301 300 299 298 297 297 296 296 296 296 296 296 296 296 296 295
324 323 323 322 321 319 317 313 309 306 305 304 303 303 301 300 299 298 298 297 297 296 296 296 296 296 296 296 295 294 294 293
324 324 322 321 319 316 313 309 306 305 303 303 301 300 299 298 298 298 297 296 296 296 296 296 295 295 293 293 293 292 292 292
324 322 320 318 316 313 310 307 305 302 302 300 299 298 298 298 298 297 297 296 296 296 296 295 295 294 293 293 292 292 292 291
322 320 318 315 313 310 308 305 303 302 300 299 297 297 297 296 296 296 296 296 296 296 295 295 294 294 294 292 292 291 291 291
320 319 317 314 311 309 306 304 302 300 298 297 296 295 295 294 294 294 295 295 295 295 295 294 294 293 293 292 290 289 289 288
319 318 315 312 310 307 304 302 299 298 296 295 295 294 294 294 294 294 294 295 295 295 294 293 292 292 292 292 288 287 287 287
318 316 313 310 306 303 300 299 297 296 295 294 294 294 293 293 294 294 295 295 294 294 293 292 292 292 291 290 287 286 286 287

GFSFLT1_925_thetae_057.txt.gz
Theta_e
322 324 328 329 329 329 331 330 328 327 327 323 320 321 318 317 312 311 314 314 314 314 313 313 311 309 307 306 305 304 303 302
324 325 328 331 331 330 330 329 327 326 325 322 322 322 319 315 313 314 314 314 313 313 311 310 309 307 305 304 303 303 302 301
328 328 329 332 331 330 330 328 326 326 323 322 323 321 319 315 315 314 314 314 312 312 311 309 308 305 304 303 303 303 302 301
328 331 333 332 331 330 328 327 326 324 325 326 324 321 316 315 315 314 314 313 312 310 308 307 305 304 304 303 303 303 302 301
330 331 331 332 331 330 329 328 326 326 328 327 320 318 316 315 315 314 313 313 311 310 307 305 304 304 304 304 303 302 302 302
331 330 330 331 330 330 329 326 326 328 325 322 320 316 316 316 315 314 313 311 309 306 305 305 304 304 303 302 302 302 302 301
331 331 331 330 329 328 328 329 327 319 319 319 318 317 315 312 310 309 308 305 304 304 304 303 302 302 301 301 300 301 301 301
328 328 328 329 329 328 326 321 319 319 318 317 315 312 310 309 308 307 306 305 304 303 303 302 301 300 300 299 298 298 299 300
322 321 322 322 321 321 320 319 318 318 317 315 312 310 308 308 307 306 305 304 303 302 300 299 298 297 296 296 296 296 297 300
320 320 321 321 321 320 319 318 318 318 316 312 309 308 308 306 305 305 305 303 302 300 298 297 296 296 296 296 296 296 297 297
318 319 320 321 321 320 320 318 318 315 311 309 308 307 305 305 305 304 302 300 299 298 297 296 296 296 296 296 296 296 295 295
317 318 320 321 321 321 320 317 313 310 308 307 306 305 305 305 302 301 300 298 297 297 296 296 296 296 296 296 296 295 295 294
317 318 321 320 320 319 314 311 309 307 307 305 306 305 303 301 300 299 298 297 297 296 296 296 296 296 296 295 293 292 292 292
318 320 320 319 318 315 310 308 305 305 306 304 302 303 301 298 298 297 297 297 296 296 296 296 295 296 295 294 293 293 291 290
320 321 319 318 316 312 307 306 306 305 303 302 301 299 298 298 297 297 296 296 296 296 296 295 295 294 294 293 293 291 291 291
320 317 315 313 309 307 306 306 304 302 301 297 296 296 296 296 295 295 295 294 295 295 295 296 295 294 293 293 292 292 290 290
317 315 313 310 308 307 306 304 303 299 297 296 295 295 294 294 294 294 294 294 294 295 295 295 294 293 292 292 292 291 290 288
316 314 312 310 308 307 304 301 298 297 295 295 294 294 294 294 293 293 294 294 295 294 294 294 292 292 292 292 291 290 288 287
312 310 308 307 306 303 299 298 297 296 294 294 294 293 293 293 293 293 294 294 293 293 292 292 291 291 291 291 291 289 286 286

GFSFLT1_925_thetae_060.txt.gz
Theta_e
326 328 325 325 325 322 327 330 329 328 327 324 320 319 318 317 314 311 313 314 314 313 312 311 310 309 307 305 304 303 302 301
327 327 325 326 326 327 329 330 328 327 326 322 320 320 318 314 312 314 314 313 313 313 312 310 309 308 304 303 303 302 302 301
322 324 327 327 327 328 329 330 327 327 326 323 321 322 318 313 314 314 314 313 312 312 311 309 308 304 303 303 303 302 302 301
324 326 329 329 328 328 328 328 327 326 325 323 322 320 318 315 314 314 313 313 312 311 309 307 305 304 304 303 303 303 302 302
329 329 329 329 327 327 327 327 327 326 324 323 322 319 315 315 314 314 313 313 312 310 307 305 304 304 304 303 303 302 302 302
330 330 329 329 328 328 328 328 326 324 323 326 324 318 315 315 314 314 313 312 311 309 306 305 304 303 302 301 300 300 301 301
329 330 330 330 330 330 329 327 326 325 326 326 322 317 316 315 314 313 312 307 306 306 304 303 302 302 301 300 299 298 297 298
328 327 328 328 329 329 328 327 326 326 326 324 318 316 315 315 312 308 305 304 303 302 303 301 300 298 297 296 296 296 296 296
328 327 326 327 328 328 328 327 318 317 317 316 314 310 310 309 307 305 304 304 304 307 299 298 297 296 296 295 296 296 296 297
326 324 324 325 325 326 327 319 317 316 315 312 310 309 308 306 306 305 306 306 302 299 299 298 297 296 296 295 295 296 296 296
322 322 320 320 319 320 319 318 317 316 315 312 310 307 306 306 306 305 303 300 299 299 298 297 296 296 296 295 296 295 295 294
320 321 320 320 321 319 318 318 317 313 311 309 307 305 305 305 303 302 300 299 298 297 297 296 296 296 295 295 295 294 293 292
318 320 319 319 320 319 318 316 314 310 307 306 306 306 304 302 300 300 299 297 297 297 296 296 296 295 295 295 294 293 292 292
316 318 318 319 318 314 311 308 307 306 306 305 304 303 303 299 299 297 297 297 296 296 296 296 296 295 295 295 294 293 292 292
316 318 318 318 311 307 306 306 306 307 305 303 302 299 298 298 297 296 295 295 295 295 295 295 295 295 295 294 293 293 293 291
318 317 315 309 307 306 306 306 307 304 302 300 297 296 296 295 295 294 293 293 294 294 295 295 295 295 294 292 292 292 292 291
316 315 312 309 307 306 306 305 302 299 296 295 295 294 294 293 294 296 296 293 294 294 295 294 295 294 293 292 292 291 291 290
316 314 311 309 307 305 303 300 297 296 295 294 294 294 294 297 298 294 293 293 294 294 293 292 293 292 292 291 291 291 290 289
311 309 307 305 304 302 298 296 295 294 294 294 295 296 298 295 293 293 293 293 293 293 292 291 291 291 291 290 290 290 289 288

GFSFLT1_925_thetae_063.txt.gz
Theta_e
327 327 328 329 327 325 325 326 326 327 328 326 324 321 319 319 319 319 314 312 313 312 311 311 310 310 308 304 303 302 301 301
324 328 329 325 326 325 326 326 327 327 324 321 319 318 317 316 314 313 313 313 313 312 311 310 310 309 305 303 302 302 301 301
323 326 327 324 325 324 327 328 327 326 325 322 320 319 317 314 312 313 313 313 313 312 311 309 308 305 303 303 303 302 302 301
323 325 326 325 325 324 325 328 327 326 325 322 321 319 317 312 314 313 313 313 312 311 310 307 306 304 303 303 303 302 302 301
322 323 325 326 325 325 325 327 327 326 325 321 321 321 316 313 314 314 313 312 312 311 308 306 304 303 303 303 302 301 301 301
320 322 326 326 326 326 326 326 326 326 324 323 322 320 318 315 314 313 313 311 309 308 306 304 304 303 301 301 300 299 299 299
324 324 328 327 327 326 326 325 327 326 325 322 323 321 317 314 314 313 312 310 309 307 305 303 303 304 300 298 297 296 296 296
328 327 327 327 326 325 325 327 326 326 324 322 325 325 317 314 314 312 309 305 304 303 303 306 305 298 297 296 295 295 295 295
328 328 328 327 326 325 326 326 327 326 324 324 326 324 316 315 313 309 304 305 304 304 307 304 297 297 296 295 295 295 295 295
328 327 327 327 326 327 327 327 326 325 325 323 320 317 314 310 305 305 306 305 307 305 300 297 296 296 296 295 295 295 295 295
327 325 325 326 328 327 327 326 322 317 317 316 313 311 308 306 306 306 305 304 301 298 297 296 296 296 296 295 295 295 295 294
325 324 323 323 325 325 325 321 316 313 313 311 309 306 305 305 305 303 302 301 298 297 297 296 296 296 295 295 295 295 294 293
323 323 320 318 319 320 319 316 314 312 311 309 306 305 305 306 309 301 299 298 297 296 296 296 296 296 295 295 295 294 293 293
320 320 319 317 316 315 314 313 309 307 306 304 305 305 308 302 298 298 297 297 296 296 296 296 296 295 295 295 295 294 293 292
318 318 317 317 312 310 308 306 307 306 305 306 306 305 301 299 298 297 296 295 294 295 294 294 295 295 295 295 294 293 292 292
315 315 314 309 307 306 307 307 307 306 306 306 304 300 298 297 295 294 294 294 294 293 294 294 294 294 295 294 293 292 292 291
316 315 311 307 306 307 307 306 307 306 303 300 297 296 294 294 296 296 295 294 293 293 294 294 293 293 294 293 292 292 291 290
315 312 309 308 306 306 305 306 304 302 297 295 294 294 295 297 296 294 293 293 293 293 293 292 292 291 291 292 292 291 290 290
311 310 307 306 306 305 304 300 297 295 294 294 295 296 297 295 293 293 293 293 293 293 292 292 291 291 291 291 290 289 289 289

GFSFLT1_925_thetae_066.txt.gz
Theta_e
327 327 327 325 323 325 325 328 328 325 324 326 327 328 326 324 324 324 323 319 313 311 311 310 310 309 308 303 302 301 301 301
327 327 327 328 327 327 326 328 328 326 326 326 325 323 322 321 320 319 315 312 311 311 311 310 309 308 305 302 302 301 301 301
323 325 327 327 327 326 325 326 326 326 326 326 324 320 318 318 318 314 312 313 312 312 311 310 308 305 303 302 302 302 301 301
321 323 326 327 326 327 326 325 325 325 325 323 320 317 317 313 313 313 313 313 313 311 310 308 306 303 303 303 303 302 302 301
321 322 324 324 324 325 325 325 326 325 325 322 321 318 315 313 312 313 313 312 311 310 308 306 304 303 303 303 302 301 300 300
321 321 324 324 324 324 324 324 325 325 324 322 321 319 318 315 313 313 313 312 310 309 307 305 304 303 302 301 300 299 297 297
320 320 323 324 324 324 324 324 324 325 324 322 321 321 319 316 313 313 312 310 309 308 306 305 303 303 302 299 297 295 295 295
318 321 324 325 324 325 324 324 324 325 324 322 322 321 319 317 314 313 311 310 308 306 305 302 306 304 298 297 295 295 294 295
322 322 325 326 325 325 325 325 324 325 325 324 323 321 320 316 314 313 311 310 306 304 303 307 304 297 297 296 295 294 294 295
324 324 325 325 325 325 324 324 324 325 325 324 322 322 323 316 313 312 309 305 305 304 307 303 299 298 296 296 295 294 294 295
324 325 325 326 326 325 324 324 325 326 326 324 323 323 318 315 313 306 305 306 306 307 303 299 297 296 296 295 295 295 295 294
324 325 326 326 325 325 325 325 326 326 324 323 321 315 311 309 306 306 306 307 308 301 299 297 296 296 295 295 295 295 294 294
324 324 324 323 323 323 324 324 323 318 314 311 308 307 305 305 305 305 306 302 300 298 297 296 296 295 295 295 295 294 294 293
320 320 320 320 319 318 319 317 313 309 308 306 305 305 305 306 309 309 301 299 297 296 296 295 295 295 295 295 295 294 294 293
320 319 317 316 315 315 314 311 309 307 306 306 305 305 307 307 304 299 297 296 296 295 295 294 294 294 294 294 294 294 294 293
317 316 314 311 309 309 308 307 307 307 305 305 306 306 303 298 296 296 294 293 294 294 294 294 294 293 293 293 294 294 293 292
314 314 311 310 307 306 306 306 305 306 305 306 304 299 296 295 294 295 295 295 293 293 293 293 293 292 291 291 293 292 292 291
313 312 309 308 307 306 306 306 305 305 305 300 296 294 294 296 296 295 293 293 293 293 293 292 292 291 291 291 291 291 291 291
309 307 306 306 306 306 305 305 304 300 296 294 294 295 297 296 294 294 293 292 292 292 292 292 291 290 290 290 291 291 290 290

GFSFLT1_925_thetae_069.txt.gz
Theta_e
324 324 324 323 324 325 326 327 329 327 321 321 325 328 328 327 326 326 324 323 321 316 312 310 309 308 306 302 302 301 301 302
325 325 325 324 324 324 324 326 328 325 322 324 325 326 326 325 324 324 323 320 315 312 310 310 309 308 303 302 302 302 302 301
326 326 326 326 325 324 324 325 327 325 323 323 324 325 323 323 321 321 318 314 311 311 310 309 308 306 303 303 303 303 302 301
328 326 327 327 327 326 326 326 327 327 324 324 324 322 320 318 317 314 312 312 312 311 310 309 307 304 303 303 303 303 303 301
328 326 326 327 326 325 326 325 325 325 325 324 324 320 317 315 315 314 312 312 312 311 310 308 306 304 303 303 303 302 301 302
327 325 325 326 325 325 325 325 324 324 324 324 322 319 317 316 314 313 313 313 312 310 309 307 305 303 303 303 301 300 298 299
329 325 323 324 324 324 324 324 324 324 324 323 321 320 319 316 313 312 312 311 310 310 309 305 304 303 303 301 298 296 295 295
328 325 323 324 324 324 323 324 323 323 324 323 321 321 321 318 315 312 311 311 310 308 305 304 303 307 305 299 296 295 294 295
325 325 324 324 324 324 324 324 324 322 322 322 322 322 321 320 317 314 313 311 309 306 304 303 306 309 300 296 296 295 294 294
323 323 324 324 324 324 324 324 324 323 322 322 322 323 322 319 316 313 311 309 308 304 303 306 309 300 296 296 296 295 294 294
322 324 324 325 325 325 325 325 324 322 322 322 324 324 322 319 313 310 308 307 304 304 307 309 301 296 296 296 295 295 295 294
323 325 325 325 326 326 325 325 323 321 322 322 323 322 319 313 309 307 307 304 307 308 308 302 298 296 296 296 295 295 295 295
325 326 326 326 326 325 324 322 320 320 319 319 315 315 311 308 307 305 306 308 310 306 300 298 296 296 295 295 295 295 295 295
326 326 326 326 325 323 323 319 318 318 314 314 312 309 307 306 305 306 308 307 303 299 297 296 296 295 295 295 295 295 295 294
326 326 326 324 323 322 317 314 313 310 311 309 306 305 304 306 307 306 302 299 297 296 296 295 294 294 294 294 294 294 294 293
323 325 324 319 317 315 313 310 308 308 307 306 304 305 307 306 300 296 297 296 295 294 295 294 293 293 293 292 292 293 294 293
319 320 318 314 312 311 309 309 308 307 306 304 306 307 300 296 296 296 294 295 295 296 294 293 293 292 292 291 291 292 292 292
316 317 315 312 310 309 309 308 307 305 304 306 303 296 294 294 296 294 295 297 299 293 293 292 292 292 291 290 290 291 291 291
312 311 310 309 308 308 306 303 301 303 302 297 294 295 296 295 296 298 298 294 292 293 292 292 291 291 289 289 289 288 290 291

GFSFLT1_925_thetae_072.txt.gz
Theta_e
325 326 327 325 321 321 322 326 326 329 328 326 326 328 329 329 329 328 325 323 321 320 318 316 313 312 309 308 308 307 307 307
325 326 325 324 323 324 326 329 330 330 327 324 325 327 328 326 326 325 323 320 320 319 317 314 312 311 309 309 309 309 308 307
326 325 326 325 325 326 327 329 330 329 325 324 326 328 326 327 326 322 320 319 318 316 315 313 312 311 309 309 309 309 308 306
327 326 326 326 325 325 327 328 329 329 328 324 327 327 325 325 324 319 317 318 315 315 314 313 312 310 309 309 309 309 309 307
329 327 327 327 327 326 326 327 329 330 329 327 325 325 326 325 322 318 315 313 314 314 313 312 311 309 309 308 309 308 307 307
329 329 327 327 327 328 329 329 330 330 329 328 327 327 326 321 318 316 314 314 314 313 312 312 310 309 308 307 307 306 305 303
332 328 327 328 329 330 329 329 329 328 328 328 327 327 323 319 317 316 315 315 315 313 312 311 310 308 307 307 304 302 301 300
333 332 330 328 328 329 329 329 328 328 327 327 326 326 324 320 318 316 317 315 314 313 312 310 308 306 307 307 304 301 300 300
332 333 331 329 328 328 328 329 329 328 328 327 325 325 324 322 319 318 317 316 315 313 311 309 307 305 308 306 300 300 300 299
328 330 331 330 329 328 328 328 328 328 327 326 326 325 324 322 321 321 319 317 315 311 309 306 304 308 307 299 300 300 299 299
326 328 329 330 330 329 328 328 328 327 327 326 324 325 324 322 321 320 318 315 310 309 306 304 306 309 300 300 300 300 299 299
325 326 326 328 329 329 329 328 327 328 327 325 324 324 323 321 320 317 314 310 307 305 305 309 308 302 300 300 300 299 298 298
327 327 327 327 329 329 328 328 328 328 327 325 324 323 319 315 311 310 309 307 305 308 309 306 302 300 300 299 299 298 298 298
329 329 330 328 328 328 329 329 327 325 324 320 316 315 313 310 308 307 306 306 307 306 302 301 300 299 299 299 298 298 297 297
327 330 330 330 329 329 328 327 324 319 317 314 312 310 308 307 306 306 307 307 302 298 299 299 299 298 298 298 297 296 296 296
323 328 331 330 329 328 326 320 315 313 312 309 308 306 306 306 307 307 305 298 298 298 298 298 298 298 297 296 295 295 294 294
319 324 329 327 325 324 318 315 313 312 311 309 306 303 306 305 303 298 297 297 296 297 298 300 298 296 294 292 292 293 293 293
321 324 325 323 321 318 315 313 311 309 307 304 302 304 301 297 296 296 295 297 299 300 299 296 295 295 294 292 290 290 291 291
320 321 320 319 318 317 315 313 310 307 305 301 299 296 296 296 297 297 299 301 298 297 296 296 295 294 293 291 290 290 291 291

GFSFLT1_925_thetae_075.txt.gz
Theta_e
325 325 324 324 323 322 323 323 323 324 326 323 323 325 326 328 329 328 329 328 327 325 323 321 318 315 313 312 312 311 312 311
326 324 325 323 323 323 322 324 324 326 328 326 324 324 328 329 329 330 329 327 326 324 322 320 317 315 313 313 313 313 312 311
326 326 326 323 323 322 323 326 328 329 327 324 322 324 328 329 329 328 326 324 323 324 322 319 316 314 313 313 313 313 313 311
327 327 327 326 324 324 325 327 329 330 326 323 324 325 327 328 327 327 325 323 323 322 320 318 315 314 313 313 313 313 313 312
327 327 327 327 326 327 328 328 330 330 330 325 325 328 328 327 327 326 321 320 319 320 319 316 316 314 313 313 313 313 311 311
328 327 326 327 327 327 327 328 328 329 330 330 327 327 326 327 326 323 319 320 318 318 317 316 316 313 313 312 311 311 309 307
329 327 326 327 328 329 329 328 328 329 331 331 329 328 327 327 325 320 318 318 316 317 316 315 315 313 312 311 310 309 306 304
330 329 328 327 328 329 330 330 330 330 332 331 331 330 329 326 324 322 320 318 317 317 316 315 314 312 310 308 310 309 305 304
332 332 329 328 329 330 331 331 330 330 330 330 330 330 329 327 324 323 321 319 319 318 315 314 313 311 307 309 310 305 303 302
329 331 332 330 329 329 331 331 330 330 330 330 330 329 328 327 325 323 321 319 318 316 315 314 311 308 307 309 304 301 302 302
327 328 330 332 331 330 331 331 330 330 330 331 329 328 327 327 325 323 320 319 318 316 314 311 308 306 309 309 302 303 303 302
327 328 329 330 332 332 331 330 329 329 330 330 328 327 326 325 324 322 322 319 315 313 311 308 305 307 309 303 303 302 302 302
327 328 327 328 331 332 332 332 330 329 330 330 327 325 326 323 321 319 316 313 311 310 307 305 308 305 302 302 302 302 301 300
327 328 329 329 330 331 332 332 330 329 330 327 323 324 323 321 319 317 314 310 308 306 306 306 302 301 302 302 301 301 301 300
325 328 329 330 330 331 331 331 331 330 324 320 317 317 314 311 308 309 308 307 307 307 306 303 301 301 301 300 301 300 299 298
322 325 329 331 331 331 330 331 329 325 321 317 312 310 310 309 308 307 307 307 306 303 302 300 300 300 300 301 299 297 296 296
320 322 326 331 331 331 329 325 321 318 314 310 308 308 306 305 305 306 305 302 300 300 300 300 301 302 299 296 294 293 294 294
322 323 327 330 330 324 319 317 315 314 311 308 306 304 302 305 304 301 299 299 298 300 301 302 301 298 297 295 294 292 292 292
324 326 326 326 323 318 315 314 311 309 307 305 304 303 302 300 300 300 300 301 302 303 301 299 298 297 295 294 292 291 292 292

GFSFLT1_925_thetae_081.txt.gz
Theta_e
322 321 320 320 320 319 318 318 317 316 315 315 315 316 316 316 316 317 316 317 321 325 324 323 322 320 318 315 312 311 311 311
321 320 320 319 319 318 317 316 314 314 315 315 314 313 317 316 315 317 318 319 322 324 326 324 320 320 316 313 311 312 312 312
321 321 319 319 318 318 318 316 314 313 313 315 314 315 319 319 318 320 320 322 323 324 325 323 321 318 315 313 312 312 312 312
323 322 321 319 318 318 317 317 317 316 315 315 319 322 323 323 322 322 320 324 325 325 325 323 321 318 315 313 312 312 313 312
324 324 322 321 319 319 317 317 316 316 317 321 323 323 325 325 324 321 324 325 325 325 325 323 322 318 315 313 312 313 314 312
325 325 324 322 319 319 319 321 321 320 321 323 325 324 324 325 324 324 326 326 326 325 324 323 321 318 315 313 313 313 314 311
324 324 324 324 321 321 323 324 325 324 326 326 327 323 325 326 326 327 327 327 325 323 324 322 320 317 315 314 313 313 313 312
325 324 324 324 323 323 323 323 323 327 328 327 328 325 324 326 327 327 327 326 324 323 323 323 319 317 315 314 313 313 312 310
325 325 325 325 324 323 323 323 323 327 328 329 327 328 326 326 327 327 326 326 325 323 323 322 319 317 315 314 313 311 310 309
325 324 326 327 326 325 323 323 325 327 328 329 329 328 327 328 327 327 326 325 324 322 322 319 318 316 315 312 310 308 308 304
325 325 325 326 326 326 327 327 327 327 327 329 330 330 330 328 328 327 326 324 322 321 319 318 316 313 310 309 310 308 304 304
321 326 325 325 326 327 327 327 327 328 327 329 331 330 330 330 330 327 325 323 322 320 318 317 315 311 313 311 309 308 308 305
320 321 323 326 326 326 327 328 328 329 329 330 332 331 330 330 330 327 324 323 322 320 318 316 313 314 311 309 308 308 305 303
319 321 322 327 327 327 327 329 329 329 330 331 331 331 330 328 328 326 324 323 320 318 316 315 314 311 308 308 307 307 304 303
318 320 321 323 327 328 329 330 330 330 330 330 330 329 329 327 327 325 323 320 320 317 315 313 311 309 308 308 306 303 302 302
316 320 321 322 326 329 330 331 331 331 329 327 326 327 325 324 321 323 321 320 316 314 312 311 308 308 307 305 302 302 301 298
318 317 323 325 328 326 326 326 326 326 320 318 318 318 319 318 316 315 313 311 312 311 309 307 307 306 303 302 302 299 298 296
319 321 328 326 323 320 318 316 317 315 314 312 313 312 312 311 310 309 310 309 308 307 307 307 303 301 301 299 297 297 295 294
320 325 321 318 317 316 314 314 313 313 312 312 312 312 310 308 308 307 306 306 307 306 303 301 301 301 297 296 295 294 293 292

GFSFLT1_925_thetae_084.txt.gz
Theta_e
322 321 320 319 319 319 317 316 317 316 319 316 317 316 320 318 316 316 321 318 323 325 324 323 322 321 321 318 312 310 310 310
322 321 320 319 318 318 317 317 319 318 317 314 317 319 317 317 318 317 321 320 322 324 324 323 322 322 320 316 313 311 310 310
321 320 320 320 319 318 317 317 317 316 315 315 316 315 315 315 315 317 319 318 319 322 324 324 322 321 318 316 312 311 312 311
321 320 319 319 318 318 317 316 316 315 315 315 315 315 315 316 316 317 317 317 318 321 323 324 324 321 318 315 313 311 312 311
320 320 319 318 318 317 317 316 315 314 314 314 315 315 317 320 318 316 316 316 318 321 323 324 324 319 319 316 313 312 312 312
321 320 321 319 318 317 317 316 315 314 314 314 315 318 319 319 319 318 317 318 320 321 323 325 323 320 319 316 313 312 312 313
321 321 322 320 318 317 318 317 317 316 315 315 316 318 321 322 324 323 323 322 321 323 325 325 324 322 319 317 314 312 313 313
323 323 322 322 319 318 318 317 317 316 316 317 318 321 323 323 324 324 324 323 325 325 325 325 324 322 320 317 314 313 313 312
323 323 323 322 320 318 317 317 319 320 321 321 322 322 323 324 324 324 324 323 324 325 325 324 323 321 319 315 313 313 311 309
323 322 323 323 322 318 317 319 320 322 323 324 325 325 325 324 324 324 324 324 324 325 325 323 323 321 318 315 313 311 310 310
324 323 323 323 324 322 319 320 322 322 323 325 326 327 327 326 325 324 325 325 325 324 324 323 322 321 317 315 313 312 311 311
324 324 324 324 323 323 322 322 322 322 321 324 326 327 327 327 327 326 325 325 324 322 322 320 320 319 316 313 312 312 312 310
324 323 323 324 325 325 325 323 322 322 323 324 326 327 328 328 326 325 324 323 322 323 321 319 318 317 315 312 312 312 310 307
320 322 323 323 324 325 325 325 325 325 326 326 326 327 328 328 326 325 326 324 323 321 321 319 318 316 312 312 312 310 308 308
316 317 320 323 324 324 325 325 326 326 326 327 327 328 329 328 326 324 327 320 322 321 320 319 317 312 311 310 309 308 308 305
314 317 318 322 324 324 325 325 326 327 327 327 327 327 327 327 324 327 324 321 321 322 315 312 311 310 309 309 308 307 305 303
314 316 318 320 324 325 326 326 327 328 327 327 326 324 322 320 321 316 317 315 314 313 311 310 310 308 308 307 306 303 302 302
316 319 321 325 326 325 323 321 323 324 322 319 318 317 316 318 319 317 313 312 311 310 309 309 308 307 306 304 302 301 296 294
325 322 317 318 319 317 317 316 316 314 314 315 317 318 316 313 312 311 310 308 308 308 308 307 306 302 301 300 297 295 293 293

GFSFLT1_925_thetae_087.txt.gz
Theta_e
322 321 320 321 319 318 317 318 320 319 319 318 320 320 317 324 324 321 319 320 319 319 318 319 319 320 320 319 317 311 310 308
322 321 319 319 319 318 319 318 318 319 316 319 321 321 323 320 323 323 321 320 323 324 320 321 322 320 321 319 316 311 309 308
322 322 320 319 318 318 318 318 317 317 316 317 318 321 316 316 317 317 317 318 321 322 323 323 322 321 321 320 316 310 309 309
322 321 320 319 318 318 317 318 317 317 317 315 315 316 315 317 316 318 319 320 320 320 322 324 323 321 321 320 315 314 310 310
321 319 318 318 318 318 317 317 317 316 316 315 314 314 315 316 316 316 316 318 318 318 320 323 324 323 321 319 316 314 312 311
320 319 318 317 316 317 317 316 317 316 315 315 314 314 315 315 316 316 316 316 317 319 321 322 323 324 323 320 317 313 312 311
320 319 319 317 318 317 317 317 317 317 315 314 314 314 314 315 315 318 317 317 319 318 320 320 321 323 324 322 318 315 312 311
320 319 319 319 317 317 317 317 316 316 315 314 314 314 315 316 316 317 319 318 318 315 314 318 320 323 324 323 319 317 313 312
320 320 319 320 319 317 317 316 316 316 315 314 314 314 315 316 317 318 318 318 317 316 318 320 320 323 324 322 319 317 313 312
320 320 321 321 320 319 317 317 316 316 316 315 315 315 316 318 318 319 320 321 322 322 322 321 322 325 324 322 319 317 313 312
321 320 321 321 321 320 318 317 317 316 316 316 316 316 317 318 320 321 322 323 323 323 323 323 323 324 323 321 318 315 312 312
323 322 321 322 321 321 318 317 317 316 317 318 319 320 321 321 322 322 322 323 324 323 323 323 323 322 321 318 317 315 312 311
322 322 322 322 322 322 319 317 317 317 319 320 321 322 323 324 325 324 323 323 324 323 323 322 321 322 322 319 316 314 311 310
321 321 322 322 322 322 322 321 318 318 319 321 321 321 324 325 325 325 325 324 321 321 323 322 321 321 318 318 317 313 311 311
320 320 321 322 323 323 322 322 322 321 321 321 321 321 322 324 325 325 324 323 323 321 317 318 320 318 316 313 311 310 309 309
315 318 319 320 321 322 323 324 324 322 322 321 322 323 324 324 325 325 324 325 324 318 316 316 319 315 314 311 310 309 308 308
312 314 315 317 319 321 322 323 324 324 323 323 324 324 325 326 326 324 322 322 319 318 316 316 315 312 312 311 309 307 307 306
312 311 315 317 320 322 322 321 322 324 324 322 320 322 322 322 322 322 321 318 318 316 313 312 311 309 308 307 307 307 304 302
319 321 318 317 318 320 319 319 319 320 318 317 317 318 320 320 319 318 317 315 312 310 309 307 307 307 306 305 304 302 301 296

GFSFLT1_925_thetae_093.txt.gz
Theta_e
323 324 322 322 322 322 323 323 323 323 323 324 324 323 323 322 324 325 324 324 317 316 316 317 317 315 314 315 313 310 308 307
322 322 321 320 320 321 321 321 322 322 322 322 322 323 322 322 324 320 322 323 323 321 317 316 317 316 316 316 311 309 307 306
322 320 321 319 319 319 320 320 320 320 320 320 321 321 321 322 324 321 322 322 323 324 322 317 317 318 317 316 315 309 308 306
323 322 321 320 319 319 319 319 319 320 320 320 321 322 322 322 322 323 322 319 319 319 321 318 317 318 318 318 316 312 310 307
323 323 321 320 320 319 318 318 319 319 319 318 322 321 321 320 320 319 318 317 317 318 318 317 317 317 318 318 318 315 312 311
323 322 322 321 321 319 318 318 318 318 318 319 319 318 320 320 319 318 318 315 316 316 318 319 318 318 319 320 319 318 315 313
322 321 321 321 320 319 319 318 317 317 317 318 317 318 318 318 319 320 318 316 315 318 318 317 318 320 321 321 321 319 318 315
323 322 321 319 319 319 318 318 318 317 317 317 317 318 317 317 316 317 318 319 318 318 319 319 319 319 319 320 321 321 320 317
323 322 320 319 318 318 318 318 318 317 316 316 316 316 316 317 317 316 316 317 317 317 316 316 317 318 318 319 320 320 321 321
324 322 320 319 318 317 317 317 317 317 317 316 315 315 315 314 314 315 316 316 317 317 316 316 316 316 317 317 318 318 319 319
323 322 321 320 319 318 316 316 316 316 317 317 316 315 315 314 315 315 316 316 316 316 316 316 317 317 317 318 318 319 318 318
322 322 321 320 320 319 318 317 318 317 317 317 316 316 315 315 315 315 315 316 317 317 317 317 316 317 317 319 320 320 319 318
322 322 321 320 320 320 319 318 318 318 318 317 317 316 315 315 315 315 315 315 316 316 317 318 319 318 318 320 320 318 318 318
322 322 322 321 321 321 320 319 319 319 318 317 317 316 316 316 315 316 315 315 315 316 317 318 317 317 319 322 320 319 317 316
322 323 323 321 321 321 321 320 319 319 318 318 317 317 316 316 316 316 316 316 317 318 319 319 319 320 321 321 320 318 316 315
320 322 323 323 322 322 321 321 320 319 319 318 318 317 317 318 317 318 319 319 320 321 321 321 321 321 321 320 318 316 316 315
316 319 321 322 322 322 322 322 321 319 319 318 318 317 317 318 319 319 320 321 321 321 321 321 321 321 321 321 319 315 314 313
316 315 317 320 321 321 321 321 321 320 319 318 317 317 317 318 318 319 320 321 321 321 321 320 319 317 316 316 314 312 310 308
315 312 315 316 317 317 317 318 320 320 320 318 318 319 318 319 319 319 319 319 318 316 314 313 312 310 310 310 310 307 304 299

GFSFLT1_925_thetae_096.txt.gz
Theta_e
327 326 326 325 325 322 323 323 323 324 324 325 325 326 327 327 327 326 325 323 322 321 321 321 319 317 317 316 316 316 316 315
327 325 325 323 324 322 322 322 322 324 324 324 324 324 326 326 326 326 325 323 321 320 321 321 320 319 318 317 317 316 316 314
327 325 325 324 323 323 321 321 322 322 323 323 323 323 324 325 324 323 324 322 320 320 321 321 320 320 319 318 317 316 315 312
328 325 324 324 323 323 323 322 321 322 323 323 323 322 322 322 322 323 323 323 322 320 320 320 321 320 320 318 317 317 316 312
329 327 324 323 323 324 323 322 320 321 322 322 322 321 319 322 322 320 319 320 321 321 322 321 321 321 321 319 318 318 317 315
329 328 324 323 322 323 322 322 319 320 321 321 321 320 319 321 323 322 321 320 322 321 320 321 320 321 321 321 319 319 319 319
329 327 325 325 323 323 321 322 320 320 321 321 319 320 319 320 321 322 323 322 321 319 317 318 318 321 321 322 322 321 320 319
330 328 326 325 324 323 322 321 320 320 321 321 320 320 320 319 320 321 321 320 319 317 317 317 318 318 321 322 323 323 323 321
330 328 326 325 324 322 322 322 321 319 318 319 319 320 320 320 321 320 320 319 318 318 319 317 315 316 319 320 321 323 323 322
330 329 326 324 324 323 322 322 321 321 320 319 319 319 319 320 321 320 319 319 319 320 320 321 321 320 321 322 322 323 323 322
329 329 327 325 324 323 322 322 322 321 321 321 320 319 319 319 320 320 320 319 319 319 320 320 320 320 320 321 321 321 321 321
328 329 327 325 324 323 321 321 321 321 322 322 321 321 320 320 319 319 319 319 319 319 319 319 320 320 320 320 320 321 321 321
327 328 328 326 325 324 321 319 320 320 321 321 321 321 321 320 320 319 319 318 319 319 319 319 320 319 320 320 321 321 320 320
327 327 328 327 326 325 324 322 321 322 321 321 321 321 321 321 320 319 319 320 319 319 320 320 320 320 320 321 321 320 318 319
327 327 327 327 326 325 325 324 323 323 322 322 321 321 321 321 320 320 320 320 319 319 319 319 320 320 320 321 321 320 322 322
324 326 328 327 326 326 325 325 324 323 323 323 322 322 321 321 320 320 319 319 319 319 320 320 321 322 322 323 322 321 321 319
323 323 325 328 327 326 326 326 325 324 323 323 323 322 321 321 321 320 320 321 321 321 322 322 323 323 322 321 321 319 317 316
323 322 322 325 326 326 326 326 326 325 324 324 323 323 322 321 321 321 321 321 321 322 322 322 321 318 318 317 315 313 311 308
321 322 319 320 324 325 326 326 325 325 324 324 323 322 322 321 321 321 321 320 318 314 311 309 308 305 307 309 308 304 300 296

GFSFLT1_925_thetae_099.txt.gz
Theta_e
332 330 330 329 328 327 326 326 326 325 325 325 325 325 328 329 330 329 328 327 324 323 318 323 323 324 323 322 320 319 319 318
331 330 329 328 326 326 324 326 324 324 324 325 326 327 327 328 329 328 326 325 323 319 318 323 322 322 320 319 320 320 320 319
332 330 329 327 326 326 324 324 324 324 324 324 324 326 327 328 328 327 326 324 320 323 323 323 320 320 320 320 320 321 320 319
332 330 329 328 326 326 325 324 325 322 323 324 324 324 325 326 326 325 323 322 320 317 321 322 321 321 321 320 321 320 320 318
332 331 329 329 327 326 326 325 323 323 323 324 324 325 323 324 324 324 323 321 319 320 321 322 322 322 321 321 321 320 321 319
331 331 328 328 328 326 325 325 323 324 323 324 323 322 322 323 323 323 323 322 321 321 321 321 322 322 322 322 321 320 321 320
331 331 328 327 327 325 324 324 322 322 322 323 323 322 321 322 322 322 322 322 322 320 321 322 323 323 322 322 321 320 321 321
331 331 330 328 327 325 325 324 322 322 322 322 321 320 320 322 323 322 321 321 321 320 321 322 322 323 322 321 320 320 323 323
331 331 330 328 328 327 324 324 323 322 323 323 322 322 320 319 322 323 322 322 322 322 321 318 318 318 317 320 321 319 319 323
331 331 330 328 328 327 326 325 324 323 323 324 323 322 321 319 320 321 322 323 323 322 320 320 319 319 319 317 320 320 320 321
331 331 331 328 328 327 326 325 325 324 323 323 323 322 322 321 320 321 323 322 320 320 321 320 320 318 319 320 320 321 321 322
330 331 330 329 328 327 326 325 325 324 324 323 323 323 323 322 322 323 322 321 321 321 321 321 321 321 321 322 322 322 322 322
329 331 331 330 328 327 327 326 325 325 324 324 323 323 323 321 322 322 322 322 321 321 320 320 321 321 321 321 322 322 322 322
329 330 331 331 329 328 327 326 325 324 324 324 324 324 324 323 323 322 322 321 321 321 321 321 321 321 321 322 322 322 322 323
328 330 330 330 329 328 327 326 324 324 323 324 324 324 324 324 324 324 323 323 322 322 322 322 322 322 322 322 322 322 323 323
326 328 329 330 330 329 328 327 326 324 324 324 324 324 324 324 324 324 323 323 322 322 322 322 322 322 321 321 321 321 322 322
324 325 328 329 329 329 329 328 328 326 326 325 325 324 324 324 324 323 323 323 323 322 322 322 322 320 320 322 323 323 320 315
322 324 325 327 328 328 328 328 328 327 327 326 326 325 325 324 324 323 323 323 322 320 316 317 313 311 312 316 315 311 306 302
322 323 324 324 327 328 328 328 328 328 327 326 326 326 325 325 324 319 317 318 315 310 306 304 302 298 301 303 305 301 296 293

GFSFLT1_925_thetae_102.txt.gz
Theta_e
333 332 331 331 331 329 328 328 328 328 327 326 326 330 331 331 328 326 328 325 327 327 327 327 328 327 327 326 323 321 318 317
334 332 331 330 329 327 326 327 326 325 325 325 326 326 328 331 330 327 325 326 327 326 325 325 326 326 325 324 322 319 318 318
334 332 331 329 327 326 326 327 325 325 325 325 325 326 326 328 330 328 325 327 325 324 323 323 324 325 324 322 320 319 320 320
334 333 331 329 326 326 325 326 325 325 326 324 324 324 326 327 328 328 326 326 324 322 317 318 322 322 321 320 320 320 322 320
333 332 332 329 327 326 326 325 325 324 324 324 325 326 326 326 328 326 325 325 323 320 319 321 318 321 320 319 320 321 321 318
334 332 331 330 327 326 326 326 324 324 324 325 325 323 324 324 324 324 324 323 321 320 322 320 319 321 320 320 321 321 322 319
332 332 330 330 328 326 326 325 324 324 324 324 324 324 323 324 323 322 321 320 320 320 318 319 322 321 321 320 321 320 320 321
331 332 330 329 328 326 325 324 323 324 324 325 324 323 324 323 323 322 321 320 319 319 316 319 321 320 317 319 321 321 321 321
331 332 330 329 328 325 325 324 322 322 323 323 323 322 323 323 322 322 321 320 319 319 318 321 319 320 319 319 320 321 320 320
331 332 331 329 328 326 326 324 323 322 323 323 322 321 322 322 322 322 322 322 322 321 320 320 320 319 316 321 320 319 320 320
331 331 331 330 329 328 326 326 324 323 324 323 322 322 321 320 323 323 321 321 321 321 321 320 320 320 320 318 318 319 321 320
331 331 331 330 329 329 327 326 325 324 324 324 324 322 322 320 320 322 323 322 322 323 321 320 321 320 320 320 320 319 319 320
330 331 332 330 329 329 328 327 326 326 325 324 323 323 323 322 321 319 319 323 322 322 322 322 321 321 320 320 320 322 322 323
328 331 332 331 330 329 328 327 327 326 326 325 324 323 324 323 323 324 323 323 323 322 321 321 321 321 321 321 322 322 322 322
329 330 331 331 330 329 329 328 327 326 326 325 325 325 324 324 322 322 323 323 323 322 322 322 321 321 321 321 322 322 322 323
325 329 330 331 331 330 329 328 327 326 326 326 326 325 325 325 324 324 323 323 322 322 322 322 322 322 322 322 323 323 321 320
320 326 329 330 331 331 329 329 327 326 325 325 326 327 326 326 326 325 325 324 324 323 323 323 320 316 313 319 320 320 317 313
319 323 325 329 330 331 330 330 328 326 325 326 325 326 326 326 325 325 324 323 318 317 314 312 309 306 307 315 318 311 305 298
320 324 324 325 329 330 330 330 330 328 327 327 327 326 326 326 324 316 316 313 309 304 300 299 298 296 299 301 301 297 294 291

GFSFLT1_925_thetae_105.txt.gz
Theta_e
329 330 331 332 331 329 329 329 328 330 329 330 331 331 328 329 328 329 330 329 330 329 329 327 327 324 323 322 325 324 321 320
329 330 331 330 330 329 328 327 328 328 327 327 328 331 331 329 328 329 330 330 328 328 328 327 328 326 326 324 325 323 320 319
329 329 329 329 329 327 326 326 326 325 325 325 325 326 329 330 328 327 330 328 324 328 327 327 327 327 327 326 323 320 319 317
331 329 327 328 327 326 325 325 326 325 324 325 324 325 325 327 329 327 328 327 326 327 326 327 327 326 326 324 321 319 318 319
331 329 326 326 326 326 325 325 325 325 324 324 324 324 324 325 325 327 326 326 325 326 324 325 326 326 324 322 320 319 320 320
330 329 327 326 326 326 325 325 324 324 323 323 324 325 325 326 326 326 326 325 325 325 323 323 323 323 323 323 321 319 321 320
330 329 327 325 325 326 325 325 325 324 323 325 324 324 324 326 327 325 325 324 323 322 320 321 321 320 320 320 320 321 321 321
330 329 328 325 324 325 326 325 324 324 323 325 324 324 324 324 324 324 323 322 322 322 320 320 319 320 318 320 320 320 318 321
330 328 327 326 324 325 326 324 323 324 323 324 324 324 324 323 322 321 322 321 321 321 320 319 318 318 319 320 320 316 318 320
329 327 327 326 325 324 325 323 323 323 322 324 323 324 323 323 322 322 321 321 320 320 320 318 317 320 321 320 317 317 317 320
329 327 326 326 325 324 324 324 322 322 322 323 323 322 323 323 322 321 321 320 320 320 319 316 317 320 320 319 319 318 318 315
330 327 327 327 325 324 324 324 322 322 323 322 322 322 322 322 322 322 320 320 320 319 319 318 319 319 318 319 319 318 321 320
329 328 327 327 326 325 325 323 323 322 323 323 322 322 321 322 323 322 321 321 321 319 319 318 319 318 320 320 319 319 320 319
326 329 328 328 327 325 325 325 324 322 323 324 323 322 322 319 322 322 321 321 321 322 321 320 320 319 319 319 319 319 319 319
322 327 328 328 327 327 326 325 325 324 324 323 323 323 323 320 319 319 321 322 322 322 322 322 321 321 320 320 320 320 320 321
317 322 325 328 327 327 327 326 326 325 324 323 323 323 323 323 322 322 320 319 322 322 322 322 321 321 321 321 321 321 320 317
316 317 322 326 328 327 327 326 326 325 325 324 324 323 323 323 323 322 323 323 323 323 322 321 319 317 316 319 319 318 315 308
321 316 317 321 328 328 327 326 326 325 325 324 324 324 324 324 323 322 322 322 319 317 315 313 310 308 312 316 316 311 304 296
322 322 321 321 328 328 327 326 326 325 324 325 325 325 325 325 323 318 315 311 308 305 303 302 301 297 301 303 305 299 293 290

GFSFLT1_925_thetae_111.txt.gz
Theta_e
314 320 329 330 333 334 333 330 330 331 331 331 330 329 328 328 326 325 325 328 327 327 325 326 324 314 313 313 314 317 318 320
315 327 329 330 332 332 330 330 330 330 331 330 328 328 328 328 327 326 325 327 328 326 325 325 320 313 311 311 314 318 317 319
324 326 327 329 329 329 329 330 330 329 329 331 329 329 327 328 328 328 325 326 326 325 324 322 317 313 311 313 316 317 318 319
324 327 326 327 327 327 328 329 329 329 329 330 329 329 327 328 329 329 329 328 327 325 324 322 317 315 312 314 317 319 319 318
324 328 325 325 326 326 327 328 328 328 328 328 328 327 328 328 327 328 328 329 328 327 326 323 318 317 314 316 319 321 320 317
326 328 327 326 326 325 326 326 327 327 327 327 327 327 327 327 327 327 328 328 328 328 326 322 320 318 319 316 321 321 321 318
321 326 327 325 324 324 325 326 326 325 324 324 324 324 325 325 326 327 327 328 327 328 328 324 322 321 321 320 321 321 320 318
318 325 326 324 322 323 324 324 324 323 323 323 324 323 323 323 323 324 325 327 327 327 327 326 325 323 323 322 321 321 319 318
323 326 326 324 323 322 323 324 324 323 323 322 323 323 323 322 323 323 324 324 326 324 325 326 326 325 324 323 321 320 318 318
321 327 325 324 323 322 323 323 323 323 323 323 322 323 323 324 324 325 325 326 325 324 324 324 325 325 324 322 320 320 320 321
319 327 325 324 323 322 323 323 323 323 322 323 323 323 322 322 323 324 324 325 324 323 323 324 324 324 323 322 321 322 320 320
319 322 325 325 323 322 322 322 322 322 322 322 323 323 322 322 323 323 323 323 322 321 322 322 322 322 322 322 323 320 320 319
317 317 325 323 323 322 322 322 322 322 322 322 322 322 322 322 322 322 322 322 322 322 321 320 320 320 321 321 319 319 318 318
317 318 326 324 324 322 322 321 321 321 322 321 322 322 322 322 321 322 322 321 320 320 321 320 319 318 318 319 319 318 317 318
321 322 326 325 324 323 322 321 321 321 321 321 321 321 322 322 322 321 321 321 320 320 319 319 320 319 320 320 319 319 319 319
322 320 325 325 325 324 323 322 320 320 320 320 319 320 321 322 322 321 321 320 320 320 319 319 318 318 319 319 319 319 318 316
319 317 317 318 320 324 323 322 321 320 321 321 319 319 320 321 321 321 321 320 320 319 319 318 318 318 318 318 318 317 316 311
317 314 313 313 312 314 325 323 322 321 321 321 321 320 319 319 320 321 320 320 319 319 318 318 317 317 318 318 318 315 308 301
314 310 309 308 307 310 318 324 322 321 321 321 321 321 320 319 318 318 317 316 315 313 311 310 310 307 312 317 316 305 297 292

GFSFLT1_925_thetae_114.txt.gz
Theta_e
311 314 316 319 322 328 330 332 334 334 330 329 327 326 327 326 326 327 326 326 328 328 327 327 326 325 319 321 320 317 318 319
312 314 319 326 328 330 330 332 333 331 328 327 327 327 328 326 327 327 326 325 326 327 326 326 325 325 317 319 319 317 317 318
311 313 325 327 329 330 330 332 331 329 328 327 327 326 327 328 327 326 325 326 325 323 323 324 324 321 315 316 316 315 317 319
310 312 323 326 328 328 328 329 330 329 330 327 327 326 328 328 327 325 325 327 327 327 326 325 324 321 314 314 315 316 317 318
310 312 322 324 326 327 327 328 328 329 329 327 327 327 327 328 327 327 325 327 326 325 325 323 323 321 312 312 314 316 317 317
316 315 323 325 326 326 327 326 326 328 328 328 327 327 326 326 328 328 327 325 326 326 325 324 323 318 312 311 314 316 317 317
316 317 321 325 325 325 325 325 325 327 327 327 327 327 327 327 327 327 328 328 327 325 325 324 322 319 314 311 313 315 318 318
315 316 323 324 324 323 324 324 324 325 326 326 326 326 327 327 327 327 327 327 328 327 326 325 324 321 317 313 316 317 319 319
316 317 320 325 324 323 323 323 324 324 324 325 325 324 324 325 326 326 327 327 327 327 327 325 323 322 319 317 316 318 320 320
316 316 317 323 324 322 323 323 324 324 324 324 323 323 323 323 322 323 323 324 326 327 327 327 325 322 321 320 318 318 319 320
316 316 317 317 323 323 322 323 323 323 323 323 322 323 322 322 323 323 324 324 324 324 325 326 326 324 323 321 319 319 319 319
316 316 316 318 323 323 322 322 323 322 322 322 322 322 322 322 322 323 324 324 325 325 324 325 324 324 322 321 320 319 319 319
317 319 319 322 323 323 322 322 322 320 322 322 322 322 322 322 322 322 322 323 324 324 323 324 324 323 322 322 320 320 320 320
315 319 319 323 323 322 322 322 321 320 322 321 321 322 322 322 322 322 321 322 322 322 322 322 323 322 322 322 321 321 320 320
315 319 318 319 324 323 322 321 321 320 322 322 321 321 321 321 321 321 321 321 321 321 320 320 320 321 321 320 320 319 319 319
314 318 316 315 317 324 322 321 320 320 321 321 320 321 321 321 322 321 321 321 320 320 320 320 319 319 319 319 319 319 318 316
316 317 315 313 312 313 322 321 320 320 320 320 319 320 321 321 321 321 320 320 320 319 319 319 319 319 319 319 319 318 315 312
315 314 311 310 309 309 311 321 320 320 320 320 319 319 319 320 320 320 319 319 318 318 317 317 317 317 318 318 318 315 310 305
309 308 306 305 305 306 308 313 320 319 320 320 319 319 318 319 319 318 317 315 316 314 312 313 313 311 315 317 316 307 299 294

GFSFLT1_925_thetae_117.txt.gz
Theta_e
313 313 313 313 313 316 323 329 330 331 331 330 330 328 327 327 327 328 327 328 329 328 328 327 326 324 322 321 321 320 321 321
312 312 312 314 320 325 328 330 330 329 329 328 327 325 325 325 324 324 325 326 327 328 328 327 325 324 321 321 319 319 320 320
316 316 315 318 324 328 329 330 329 330 330 329 328 326 326 329 328 326 326 326 326 326 327 325 324 323 321 319 319 319 320 319
320 320 319 320 324 327 329 330 329 330 330 329 328 326 326 327 327 327 326 326 325 325 326 324 323 321 319 319 319 319 319 319
319 319 319 322 323 327 328 329 328 329 329 328 328 327 327 326 328 327 326 325 325 324 323 323 321 320 318 318 318 319 318 320
319 319 318 322 324 327 328 328 328 327 327 327 328 326 326 328 328 326 326 325 323 323 323 323 322 319 319 316 317 318 319 320
318 318 318 320 325 326 327 328 325 327 328 327 327 326 326 327 327 327 325 326 325 323 324 323 323 318 317 315 316 317 318 319
317 318 319 318 324 323 325 325 324 324 327 327 326 326 328 327 327 328 327 326 326 325 325 323 322 323 319 314 315 316 317 319
317 318 318 318 319 324 323 324 324 323 325 325 325 327 327 328 327 328 327 327 326 325 325 325 324 321 320 315 314 316 317 318
318 319 318 320 319 320 323 323 324 324 323 324 325 325 326 326 326 327 327 327 327 327 325 324 323 324 323 318 315 316 316 317
318 319 320 320 323 322 324 323 323 323 324 325 325 325 324 324 324 324 324 325 326 327 326 326 325 323 322 319 317 317 316 317
317 318 319 317 319 324 323 323 323 323 324 325 325 324 323 323 322 322 323 324 324 324 324 326 325 325 323 321 318 317 317 317
316 317 317 317 315 322 323 322 323 323 324 324 324 322 322 322 321 322 322 323 324 324 325 325 324 325 322 322 319 318 317 317
315 315 315 316 315 314 323 322 322 322 322 324 323 323 321 322 322 322 322 322 322 323 324 324 324 325 323 322 321 319 318 317
315 315 315 315 315 313 315 322 322 321 321 322 322 322 321 322 322 321 321 322 321 322 322 322 322 323 322 322 320 320 319 318
316 317 317 315 313 311 311 319 321 320 321 322 322 322 321 322 321 321 321 321 321 321 320 321 322 322 322 322 320 319 318 318
318 317 315 311 309 309 308 310 321 320 321 323 322 321 321 321 321 321 320 320 320 320 319 319 319 319 320 319 319 319 311 310
312 311 310 307 306 305 307 308 311 320 320 321 321 320 320 320 320 321 319 319 319 318 317 318 317 318 319 317 315 310 309 304
307 306 305 304 303 303 303 306 311 320 320 320 320 319 320 320 320 319 318 317 317 315 314 313 314 308 316 316 313 305 299 294

GFSFLT1_925_thetae_120.txt.gz
Theta_e
316 316 318 319 319 319 319 319 325 331 335 337 337 333 331 331 331 332 333 331 331 331 329 328 327 327 326 325 325 325 326 326
315 320 322 323 324 324 325 326 328 332 335 336 333 330 328 329 328 328 328 329 330 329 329 328 327 326 325 325 325 325 324 325
320 321 322 323 326 328 328 330 331 333 333 333 332 331 331 329 326 327 326 327 328 328 328 328 326 325 325 324 325 325 324 325
322 323 323 323 326 329 329 330 332 332 332 331 333 331 330 326 327 326 326 328 330 329 328 328 325 324 323 323 324 324 325 324
322 322 323 323 327 330 330 331 332 330 332 331 333 332 332 330 329 329 329 330 328 326 326 326 324 324 323 322 323 323 324 325
320 320 321 322 325 329 330 331 330 329 331 333 333 334 332 330 329 330 330 327 326 326 325 325 325 324 323 322 323 324 324 324
319 319 320 321 322 326 328 329 329 329 330 333 333 333 331 331 331 330 329 325 324 324 323 322 322 322 322 321 322 323 324 324
319 320 322 322 324 323 326 326 328 326 327 331 332 331 330 330 331 330 329 326 323 322 322 321 319 319 320 320 320 322 322 324
319 320 323 323 324 327 325 327 326 326 325 327 330 330 328 329 330 330 328 328 325 323 321 320 319 319 320 319 320 322 322 323
318 318 321 321 322 324 327 326 327 326 325 326 328 328 330 330 330 330 330 327 327 325 324 321 321 319 319 318 319 320 321 323
317 318 319 318 319 320 320 328 326 325 325 325 329 329 329 329 329 330 330 328 327 327 325 323 322 321 318 318 317 318 319 321
317 318 317 317 318 318 318 321 325 324 325 324 328 328 328 328 326 327 327 326 326 327 326 324 324 322 322 321 319 318 318 319
316 317 317 317 318 318 317 314 323 324 324 324 328 328 327 327 326 325 324 324 326 326 324 325 325 323 322 321 320 321 320 320
315 316 318 317 317 316 316 313 313 323 324 325 326 327 326 325 324 324 324 323 323 323 324 325 325 324 322 322 320 320 320 319
314 317 319 317 316 315 314 311 312 321 323 324 326 326 324 324 324 324 322 322 322 322 323 323 323 323 324 323 322 320 319 318
316 319 320 318 314 312 310 309 310 314 322 324 324 323 324 325 324 323 323 322 321 321 321 321 322 322 322 322 321 320 319 317
318 318 316 314 311 309 307 308 308 308 322 323 323 324 325 324 324 322 321 321 320 320 320 320 320 321 321 321 320 318 314 310
315 314 312 311 310 307 305 305 306 308 315 322 323 324 324 324 323 322 320 320 319 319 318 318 316 312 319 320 317 308 303 304
311 310 308 307 306 306 302 303 305 308 311 322 323 323 323 323 322 320 319 317 316 314 312 311 310 302 314 311 307 301 298 295

GFSFLT1_925_thetae_123.txt.gz
Theta_e
317 317 317 320 320 320 322 321 322 324 331 337 340 342 338 337 338 339 339 338 337 336 334 332 331 330 328 327 326 326 327 326
316 317 320 322 324 326 325 326 325 323 327 334 338 342 339 336 335 338 339 335 336 334 333 332 331 329 328 326 326 326 326 327
317 320 322 324 325 326 330 329 329 329 329 333 337 339 333 332 332 336 336 334 333 331 333 330 330 328 326 326 326 324 325 327
320 322 323 325 326 330 331 330 330 332 332 335 336 333 331 330 330 332 334 332 331 331 330 330 329 328 326 326 326 324 325 325
321 321 322 323 325 330 332 332 332 333 334 335 334 332 333 331 330 330 332 331 330 331 331 329 328 327 326 325 325 324 324 325
320 320 321 321 324 326 330 333 333 333 333 335 333 333 333 333 334 331 331 330 331 332 331 329 328 327 326 325 325 325 324 325
320 320 320 322 324 326 326 329 331 330 331 332 332 333 335 335 334 332 332 332 331 331 330 328 327 326 325 324 325 323 323 325
320 320 322 322 324 326 328 327 329 329 330 332 332 334 335 335 332 331 333 329 328 328 327 325 325 325 324 323 324 323 323 325
319 319 320 321 322 322 326 327 328 328 329 329 331 333 334 334 333 332 332 329 326 325 324 324 323 323 323 323 323 323 322 324
318 318 319 319 318 320 323 327 328 328 327 328 328 331 333 333 331 330 331 331 328 325 323 322 322 322 322 322 322 323 324 324
315 317 318 317 318 319 321 323 327 328 327 327 327 328 331 331 331 332 332 331 329 326 324 322 321 320 320 320 321 322 323 323
312 316 317 317 318 319 320 320 322 326 326 326 326 327 329 331 331 331 331 331 330 328 325 322 321 319 319 319 320 321 322 323
309 315 316 317 318 318 318 319 319 320 325 325 326 325 329 329 329 329 330 330 329 327 326 324 322 320 319 318 319 320 321 322
308 312 315 317 318 318 317 317 317 318 320 324 325 325 328 329 328 328 327 327 327 328 326 326 324 322 320 318 319 319 319 320
308 310 315 317 319 317 316 314 315 314 315 323 324 326 328 328 327 326 326 326 326 326 326 327 327 324 322 321 320 321 320 320
311 314 318 319 318 316 315 312 313 312 312 317 324 325 327 326 325 325 325 325 324 324 324 324 324 324 324 323 322 321 321 321
313 317 316 316 315 314 313 311 308 310 310 314 320 324 325 325 325 325 324 325 324 322 322 321 321 321 322 322 323 321 320 317
315 315 314 313 311 310 309 308 307 307 309 311 314 324 324 326 325 324 324 323 321 320 319 318 317 316 319 321 320 314 308 307
313 313 311 309 308 305 303 304 306 305 305 307 312 322 325 325 325 323 321 319 317 315 313 312 310 304 311 315 315 306 301 296

GFSFLT1_925_thetae_126.txt.gz
Theta_e
320 319 318 320 320 320 320 319 320 326 339 344 344 341 339 339 340 343 342 340 342 340 338 337 335 333 331 328 327 328 327 327
317 318 318 321 322 323 325 325 323 323 325 336 341 343 341 340 338 338 342 338 338 338 338 336 334 332 330 328 328 327 327 327
317 318 321 323 324 325 325 328 329 328 327 325 334 339 343 340 338 336 339 340 337 337 336 335 333 332 330 329 328 327 326 327
319 323 322 324 325 329 331 331 331 330 330 329 331 338 339 337 336 336 334 339 337 337 336 334 333 332 329 328 327 326 324 326
322 323 323 324 326 326 330 332 333 332 332 332 336 337 334 333 333 333 334 335 335 333 333 333 330 329 328 328 327 326 324 324
321 321 321 321 325 326 326 330 332 334 335 334 337 335 334 333 332 331 332 332 332 332 332 330 330 329 327 327 327 326 324 323
320 321 320 323 325 326 328 329 329 330 331 332 335 336 333 332 331 331 331 331 332 331 329 332 329 328 328 327 326 326 324 323
321 321 321 321 322 323 324 326 328 330 329 329 331 334 333 332 335 334 333 332 332 331 330 332 330 328 327 327 326 326 324 323
321 320 320 320 320 320 322 323 327 330 329 328 329 332 333 333 334 333 332 332 330 329 331 330 329 328 327 327 326 325 325 323
319 318 319 319 318 320 322 322 323 326 328 327 328 330 331 334 334 333 331 333 330 328 326 325 326 325 325 325 324 325 324 323
315 316 318 317 318 319 320 320 321 321 325 327 326 328 329 332 333 332 330 331 330 328 325 322 323 323 323 323 323 324 323 322
311 314 316 316 318 318 319 319 319 320 321 323 327 327 327 328 331 332 331 331 330 328 326 322 322 322 322 322 322 323 323 321
309 309 314 315 317 318 318 318 317 317 318 319 324 327 326 327 329 331 331 332 331 329 326 323 322 322 321 321 321 322 323 323
309 309 309 315 316 319 318 316 315 316 315 315 319 325 326 326 329 330 331 331 330 329 327 325 323 323 321 320 320 321 322 323
308 310 310 319 319 318 316 316 313 313 313 314 315 322 325 325 327 329 328 329 329 329 327 326 323 323 322 320 319 320 321 322
308 310 318 317 315 315 314 313 313 311 309 311 313 314 323 325 328 328 328 327 326 327 327 327 326 324 322 320 319 319 320 320
309 316 315 314 313 312 311 310 308 308 309 309 311 311 317 325 326 327 326 325 325 325 325 325 324 324 323 322 321 319 319 319
314 313 312 311 310 308 306 305 305 306 307 307 307 306 313 324 325 326 325 324 324 323 322 322 321 322 323 322 322 321 320 319
311 309 308 308 306 303 301 301 303 303 303 304 302 301 306 318 325 325 324 324 321 319 317 316 315 314 317 320 321 316 308 302

GFSFLT1_925_thetae_129.txt.gz
Theta_e
318 321 321 320 320 321 320 323 337 343 343 344 345 344 343 338 341 343 341 343 342 341 339 338 336 333 332 331 329 326 326 325
319 320 318 320 321 323 324 325 324 324 341 343 343 342 342 339 338 339 341 342 342 341 339 337 336 334 332 331 329 327 326 326
313 315 320 323 324 325 327 330 330 330 328 332 341 342 341 341 339 338 339 338 340 341 340 337 336 334 332 331 328 327 327 326
318 320 322 323 328 328 329 330 332 332 331 330 326 339 342 341 339 339 338 338 338 340 339 338 336 335 332 330 329 327 327 326
320 318 320 325 326 326 326 325 328 332 333 332 328 328 337 339 338 338 337 334 337 339 337 337 336 334 332 330 329 327 326 326
317 316 323 325 325 326 326 327 327 328 333 334 334 334 334 336 336 337 334 334 334 336 337 336 335 333 331 330 328 327 326 326
317 317 324 325 325 324 324 324 325 328 328 328 332 336 335 334 333 333 333 333 334 335 334 335 334 332 330 329 329 327 326 325
316 317 318 321 323 323 322 321 323 329 329 327 329 330 335 334 333 332 331 330 332 333 332 332 332 330 328 328 328 327 326 325
316 316 316 318 321 322 321 321 321 321 326 328 327 328 330 334 332 331 331 330 330 331 331 331 330 328 328 327 327 327 326 325
315 314 316 316 321 320 320 321 320 319 320 322 326 325 327 329 332 333 333 332 331 330 331 330 330 330 329 328 327 326 326 326
313 313 315 317 319 319 319 318 318 318 317 318 319 323 326 327 329 333 333 332 332 331 330 330 330 330 329 327 326 326 326 325
308 311 314 318 318 318 318 317 317 316 315 315 315 316 323 327 327 329 332 332 332 331 329 328 326 326 325 325 324 324 324 324
306 305 311 314 316 317 316 315 315 314 314 313 313 314 319 325 327 326 330 331 331 330 328 326 325 322 321 323 322 322 323 323
306 306 316 317 316 316 315 314 313 312 311 310 310 312 314 320 325 326 326 330 331 329 328 326 325 322 322 322 322 322 323 323
305 315 314 313 313 313 312 311 309 308 308 309 309 310 311 312 319 325 325 329 331 329 328 326 326 324 321 321 320 321 322 323
313 314 312 311 311 309 308 306 305 305 306 307 308 308 308 309 314 323 326 327 330 330 329 327 326 325 323 322 321 320 321 322
311 310 309 308 306 304 302 301 301 302 304 304 305 305 304 304 310 317 324 327 329 329 328 327 325 324 323 322 323 320 320 320
305 305 304 303 300 299 298 298 299 301 301 300 301 301 300 300 302 310 324 326 327 326 326 326 325 324 324 323 321 320 319 319
302 301 301 299 296 295 295 295 297 298 298 297 295 295 296 298 299 305 314 324 325 324 323 323 322 321 322 322 321 318 318 316

GFSFLT1_925_thetae_132.txt.gz
Theta_e
312 315 317 320 320 320 325 343 346 346 345 344 343 343 342 341 341 342 341 341 340 341 340 339 337 335 333 332 331 330 327 326
311 315 316 319 321 323 337 344 346 346 343 343 342 342 342 341 341 340 341 341 341 341 340 338 337 335 333 331 330 328 326 325
310 313 317 321 322 324 326 326 328 339 341 340 339 341 341 342 341 338 340 340 339 340 339 337 336 334 332 331 330 327 326 325
317 319 319 324 327 328 329 330 331 332 332 331 337 340 340 340 339 340 338 338 340 340 337 337 335 334 333 331 330 328 327 326
320 320 323 326 327 326 326 326 327 330 333 333 329 338 339 339 338 338 340 338 336 338 338 337 336 334 332 332 331 329 327 326
317 320 322 323 325 326 325 326 326 327 328 332 333 331 331 334 339 338 336 334 333 336 336 336 336 334 333 332 331 328 327 326
319 322 323 325 323 321 320 322 326 327 328 327 327 330 334 333 334 336 336 333 334 334 333 335 337 335 333 332 332 330 328 326
321 323 322 320 321 320 320 322 324 327 328 328 327 326 328 333 334 334 334 334 334 333 333 333 335 335 334 332 331 329 327 326
322 320 318 320 320 320 320 319 319 318 319 323 326 326 326 327 330 331 333 331 331 331 332 333 333 334 333 331 330 330 327 326
316 316 319 319 319 319 319 318 317 316 316 316 316 318 322 325 326 328 329 332 331 330 329 330 333 332 332 331 329 327 327 327
316 315 318 318 318 319 318 317 316 315 314 313 313 314 316 320 324 326 327 330 332 332 330 330 331 331 330 329 328 327 327 327
309 314 318 317 317 316 316 315 314 314 312 311 311 312 313 317 322 325 327 327 331 332 331 330 330 330 329 328 327 327 326 326
309 315 315 315 314 313 313 312 311 310 309 309 309 310 311 312 314 319 325 326 326 331 330 331 330 329 329 328 327 326 326 325
311 314 313 313 313 312 309 307 306 305 306 306 307 307 308 309 309 311 317 324 326 329 329 329 328 328 327 325 325 323 322 322
312 311 309 307 307 306 304 303 303 303 304 304 304 305 305 306 306 307 312 319 325 327 329 329 328 327 325 323 321 321 322 321
307 306 305 302 301 300 299 299 299 301 302 301 301 301 302 301 302 304 306 315 322 326 327 327 327 326 324 323 320 320 320 321
304 303 302 300 298 297 296 296 297 298 299 299 298 297 297 297 298 300 303 308 317 325 327 326 325 326 325 325 323 321 320 320
301 300 299 297 295 294 293 293 294 294 296 295 294 294 294 295 295 297 299 302 311 318 326 326 325 326 326 325 323 322 321 321
298 297 296 294 292 291 291 291 290 292 292 291 291 291 292 293 294 296 297 299 304 314 324 325 327 326 326 324 323 320 320 319